KC5DAQ-22 Weather Reports


time (UTC)temp
F
wind
direction
speed
knots
gust
knots
rain 1hr
in
rain 24hr
in
rain mn
in
humidity
%
barometer
mb
20260831064104 82 158 0.0 1.7 0.00 0.00 0.00 86 1013.5
20260831064003 82 157 0.0 1.7 0.00 0.00 0.00 86 1013.6
20260831063903 82 157 0.9 1.7 0.00 0.00 0.00 86 1013.6
20260831063802 82 157 0.0 2.6 0.00 0.00 0.00 85 1013.6
20260831063702 82 138 0.9 3.5 0.00 0.00 0.00 85 1013.6
20260831063603 82 161 0.0 3.5 0.00 0.00 0.00 85 1013.7
20260831063502 82 162 0.0 3.5 0.00 0.00 0.00 85 1013.7
20260831063403 82 164 0.0 3.5 0.00 0.00 0.00 85 1013.6
20260831063302 82 164 0.9 3.5 0.00 0.00 0.00 85 1013.6
20260831063202 82 164 0.0 3.5 0.00 0.00 0.00 85 1013.6
20260831063103 82 164 0.0 3.5 0.00 0.00 0.00 85 1013.6
20260831063003 82 164 0.9 3.5 0.00 0.00 0.00 85 1013.5
20260831062903 82 164 1.7 3.5 0.00 0.00 0.00 85 1013.6
20260831062802 82 172 1.7 4.3 0.00 0.00 0.00 85 1013.6
20260831062703 82 175 0.0 4.3 0.00 0.00 0.00 85 1013.6
20260831062602 82 169 0.9 4.3 0.00 0.00 0.00 85 1013.6
20260831062502 82 171 1.7 4.3 0.00 0.00 0.00 85 1013.6
20260831062403 83 176 1.7 4.3 0.00 0.00 0.00 84 1013.5
20260831062305 83 171 1.7 4.3 0.00 0.00 0.00 84 1013.6
20260831062202 83 172 1.7 4.3 0.00 0.00 0.00 84 1013.6
20260831062102 83 173 2.6 4.3 0.00 0.00 0.00 84 1013.5
20260831062004 83 182 2.6 4.3 0.00 0.00 0.00 84 1013.6
20260831061902 83 173 2.6 4.3 0.00 0.00 0.00 84 1013.6
20260831061803 83 186 2.6 4.3 0.00 0.00 0.00 84 1013.6
20260831061703 83 182 1.7 4.3 0.00 0.00 0.00 84 1013.6
20260831061603 83 179 1.7 4.3 0.00 0.00 0.00 84 1013.6
20260831061503 83 159 1.7 4.3 0.00 0.00 0.00 84 1013.6
20260831061404 83 175 1.7 4.3 0.00 0.00 0.00 84 1013.5
20260831061302 83 183 1.7 4.3 0.00 0.00 0.00 84 1013.5
20260831061202 83 172 1.7 4.3 0.00 0.00 0.00 84 1013.6
20260831061102 83 168 1.7 4.3 0.00 0.00 0.00 84 1013.5
20260831061003 83 168 1.7 4.3 0.00 0.00 0.00 84 1013.5
20260831060902 83 196 1.7 4.3 0.00 0.00 0.00 84 1013.6
20260831060800 83 169 2.6 4.3 0.00 0.00 0.00 84 1013.6
20260831060659 83 165 1.7 4.3 0.00 0.00 0.00 84 1013.5
20260831060556 83 188 1.7 4.3 0.00 0.00 0.00 84 1013.6
20260831060455 83 179 1.7 4.3 0.00 0.00 0.00 84 1013.6
20260831060354 83 183 1.7 4.3 0.00 0.00 0.00 84 1013.6
20260831060252 83 169 1.7 4.3 0.00 0.00 0.00 84 1013.5
20260831060151 83 200 1.7 4.3 0.00 0.00 0.00 84 1013.6
20260831060051 83 188 1.7 4.3 0.00 0.00 0.00 84 1013.6
20260831055949 83 162 1.7 4.3 0.00 0.00 0.00 84 1013.5
20260831055846 83 172 1.7 4.3 0.00 0.00 0.00 84 1013.6
20260831055745 83 172 1.7 4.3 0.00 0.00 0.00 84 1013.5
20260831055643 83 165 1.7 4.3 0.00 0.00 0.00 84 1013.6
20260831055542 83 180 0.9 3.5 0.00 0.00 0.00 84 1013.6
20260831055442 83 158 1.7 3.5 0.00 0.00 0.00 84 1013.7
20260831055340 83 159 2.6 3.5 0.00 0.00 0.00 84 1013.6
20260831055238 83 169 2.6 3.5 0.00 0.00 0.00 84 1013.6
20260831055137 83 155 1.7 3.5 0.00 0.00 0.00 84 1013.6
20260831055035 83 173 1.7 3.5 0.00 0.00 0.00 84 1013.6
20260831054933 83 178 0.9 3.5 0.00 0.00 0.00 84 1013.6
20260831054831 83 185 1.7 3.5 0.00 0.00 0.00 84 1013.6
20260831054731 83 183 1.7 3.5 0.00 0.00 0.00 84 1013.6
20260831054631 83 178 1.7 3.5 0.00 0.00 0.00 84 1013.6
20260831054532 83 175 1.7 3.5 0.00 0.00 0.00 84 1013.6
20260831054431 83 173 1.7 3.5 0.00 0.00 0.00 84 1013.6
20260831054332 83 165 1.7 3.5 0.00 0.00 0.00 84 1013.6
20260831054234 83 173 1.7 3.5 0.00 0.00 0.00 84 1013.6
20260831054131 83 180 1.7 3.5 0.00 0.00 0.00 84 1013.7
20260831054032 83 183 1.7 3.5 0.00 0.00 0.00 84 1013.7
20260831053931 83 180 1.7 3.5 0.00 0.00 0.00 84 1013.7
20260831053833 83 185 1.7 3.5 0.00 0.00 0.00 84 1013.7
20260831053731 83 144 0.9 3.5 0.00 0.00 0.00 84 1013.6
20260831053632 83 141 0.9 3.5 0.00 0.00 0.00 84 1013.6
20260831053533 83 138 0.9 3.5 0.00 0.00 0.00 84 1013.7
20260831053432 83 135 1.7 3.5 0.00 0.00 0.00 85 1013.7
20260831053331 82 142 1.7 3.5 0.00 0.00 0.00 84 1013.6
20260831053228 82 173 1.7 2.6 0.00 0.00 0.00 84 1013.7
20260831053125 82 169 1.7 2.6 0.00 0.00 0.00 84 1013.6
20260831053026 82 118 1.7 2.6 0.00 0.00 0.00 84 1013.6
20260831052925 82 124 0.9 4.3 0.00 0.00 0.00 84 1013.6
20260831052822 82 123 0.9 4.3 0.00 0.00 0.00 84 1013.6
20260831052721 83 118 0.9 4.3 0.00 0.00 0.00 84 1013.6
20260831052620 83 138 0.9 4.3 0.00 0.00 0.00 84 1013.5
20260831052520 83 141 0.0 4.3 0.00 0.00 0.00 84 1013.5
20260831052420 83 142 0.0 4.3 0.00 0.00 0.00 84 1013.6
20260831052320 83 142 0.9 4.3 0.00 0.00 0.00 84 1013.5
20260831052221 83 144 0.9 4.3 0.00 0.00 0.00 84 1013.5
20260831052120 83 147 1.7 4.3 0.00 0.00 0.00 84 1013.6
20260831052020 83 176 0.9 4.3 0.00 0.00 0.00 84 1013.5
20260831051919 83 147 0.9 4.3 0.00 0.00 0.00 84 1013.6
20260831051819 83 151 1.7 4.3 0.00 0.00 0.00 84 1013.5
20260831051721 83 147 1.7 4.3 0.00 0.00 0.00 84 1013.5
20260831051621 83 149 1.7 4.3 0.00 0.00 0.00 84 1013.5
20260831051519 83 131 1.7 4.3 0.00 0.00 0.00 84 1013.5
20260831051419 83 183 0.9 4.3 0.00 0.00 0.00 84 1013.5
20260831051321 83 135 0.9 3.5 0.00 0.00 0.00 84 1013.5
20260831051220 83 134 1.7 3.5 0.00 0.00 0.00 84 1013.4
20260831051119 83 131 1.7 3.5 0.00 0.00 0.00 84 1013.4
20260831051020 83 140 1.7 3.5 0.00 0.00 0.00 84 1013.5
20260831050921 83 121 1.7 3.5 0.00 0.00 0.00 84 1013.5
20260831050819 83 107 1.7 3.5 0.00 0.00 0.00 84 1013.5
20260831050719 83 148 1.7 3.5 0.00 0.00 0.00 84 1013.4
20260831050621 83 131 1.7 3.5 0.00 0.00 0.00 84 1013.4
20260831050519 83 148 1.7 3.5 0.00 0.00 0.00 84 1013.4
20260831050419 83 138 1.7 3.5 0.00 0.00 0.00 84 1013.4
20260831050320 83 140 0.9 3.5 0.00 0.00 0.00 84 1013.4
20260831050222 83 140 0.9 2.6 0.00 0.00 0.00 84 1013.4
20260831050119 83 124 0.9 2.6 0.00 0.00 0.00 84 1013.4
20260831050019 83 121 0.9 4.3 0.00 0.00 0.00 84 1013.3
20260831045919 83 121 0.9 4.3 0.00 0.00 0.00 83 1013.3
20260831045820 83 141 0.0 4.3 0.00 0.00 0.00 83 1013.4
20260831045719 83 144 0.0 4.3 0.00 0.00 0.00 83 1013.4
20260831045619 83 145 0.0 4.3 0.00 0.00 0.00 83 1013.4
20260831045518 83 145 0.0 4.3 0.00 0.00 0.00 83 1013.5
20260831045418 83 171 0.0 4.3 0.00 0.00 0.00 83 1013.4
20260831045320 83 173 0.0 4.3 0.00 0.00 0.00 83 1013.4
20260831045219 83 176 1.7 4.3 0.00 0.00 0.00 83 1013.4
20260831045119 83 183 1.7 4.3 0.00 0.00 0.00 83 1013.4
20260831045018 83 138 0.0 2.6 0.00 0.00 0.00 83 1013.4
20260831044919 83 161 0.0 2.6 0.00 0.00 0.00 83 1013.3
20260831044819 83 161 0.9 2.6 0.00 0.00 0.00 83 1013.4
20260831044720 83 161 0.9 2.6 0.00 0.00 0.00 82 1013.4
20260831044620 83 148 0.0 2.6 0.00 0.00 0.00 82 1013.4
20260831044519 83 157 0.9 2.6 0.00 0.00 0.00 82 1013.4
20260831044418 83 158 0.9 3.5 0.00 0.00 0.00 82 1013.4
20260831044319 83 137 0.0 5.2 0.00 0.00 0.00 82 1013.4
20260831044219 83 137 0.9 6.1 0.00 0.00 0.00 82 1013.4
20260831044119 83 147 0.9 6.1 0.00 0.00 0.00 82 1013.4
20260831044019 83 135 0.9 6.1 0.00 0.00 0.00 82 1013.4
20260831043919 84 94 0.9 6.1 0.00 0.00 0.00 82 1013.3
20260831043819 84 94 0.9 6.1 0.00 0.00 0.00 82 1013.3
20260831043719 84 76 0.9 6.1 0.00 0.00 0.00 82 1013.4
20260831043620 84 72 1.7 6.1 0.00 0.00 0.00 82 1013.3
20260831043519 84 113 1.7 6.1 0.00 0.00 0.00 82 1013.3
20260831043418 84 164 2.6 6.1 0.00 0.00 0.00 82 1013.3
20260831043318 84 152 3.5 6.1 0.00 0.00 0.00 82 1013.2
20260831043218 84 125 2.6 5.2 0.00 0.00 0.00 82 1013.1
20260831043118 84 134 1.7 5.2 0.00 0.00 0.00 82 1013.3
20260831043018 84 192 1.7 5.2 0.00 0.00 0.00 82 1013.3
20260831042918 84 169 2.6 5.2 0.00 0.00 0.00 82 1013.2
20260831042819 84 200 1.7 5.2 0.00 0.00 0.00 82 1013.3
20260831042718 84 178 1.7 5.2 0.00 0.00 0.00 82 1013.3
20260831042619 84 134 2.6 5.2 0.00 0.00 0.00 82 1013.3
20260831042519 84 180 2.6 5.2 0.00 0.00 0.00 81 1013.3
20260831042418 83 127 2.6 5.2 0.00 0.00 0.00 81 1013.3
20260831042319 84 147 1.7 4.3 0.00 0.00 0.00 81 1013.2
20260831042218 84 171 1.7 4.3 0.00 0.00 0.00 81 1013.3
20260831042119 84 109 1.7 5.2 0.00 0.00 0.00 81 1013.2
20260831042018 84 185 1.7 5.2 0.00 0.00 0.00 81 1013.2
20260831041918 84 176 2.6 5.2 0.00 0.00 0.00 81 1013.2
20260831041819 84 165 2.6 5.2 0.00 0.00 0.00 81 1013.1
20260831041719 84 157 2.6 5.2 0.00 0.00 0.00 81 1013.2
20260831041618 84 151 3.5 5.2 0.00 0.00 0.00 81 1013.2
20260831041519 84 165 2.6 5.2 0.00 0.00 0.00 81 1013.2
20260831041420 84 116 1.7 5.2 0.00 0.00 0.00 81 1013.2
20260831041318 84 135 1.7 5.2 0.00 0.00 0.00 81 1013.2
20260831041219 84 172 2.6 5.2 0.00 0.00 0.00 81 1013.2
20260831041119 84 127 2.6 5.2 0.00 0.00 0.00 81 1013.2
20260831041019 84 176 2.6 5.2 0.00 0.00 0.00 81 1013.2
20260831040918 84 104 2.6 5.2 0.00 0.00 0.00 81 1013.2
20260831040819 84 125 2.6 5.2 0.00 0.00 0.00 80 1013.2
20260831040719 84 168 1.7 4.3 0.00 0.00 0.00 80 1013.2
20260831040617 84 245 1.7 5.2 0.00 0.00 0.00 80 1013.1
20260831040518 84 148 1.7 5.2 0.00 0.00 0.00 80 1013.2
20260831040419 84 162 0.9 5.2 0.00 0.00 0.00 80 1013.1
20260831040318 84 128 0.9 5.2 0.00 0.00 0.00 80 1013.2
20260831040217 84 120 0.9 5.2 0.00 0.00 0.00 80 1013.1
20260831040118 84 118 1.7 5.2 0.00 0.00 0.00 80 1013.1
20260831040020 84 197 2.6 5.2 0.00 0.00 0.00 80 1013.1
20260831035917 84 141 2.6 5.2 0.00 0.00 0.00 80 1013.1
20260831035818 84 180 2.6 5.2 0.00 0.00 0.00 80 1013.1
20260831035719 84 169 1.7 5.2 0.00 0.00 0.00 80 1013.1
20260831035618 84 165 1.7 4.3 0.00 0.00 0.00 80 1013.1
20260831035518 84 195 0.9 4.3 0.00 0.00 0.00 80 1013.1
20260831035417 84 152 0.9 4.3 0.00 0.00 0.00 80 1013.1
20260831035317 84 183 1.7 4.3 0.00 0.00 0.00 79 1013.1
20260831035218 84 147 1.7 4.3 0.00 0.00 0.00 79 1013.1
20260831035118 84 135 1.7 4.3 0.00 0.00 0.00 79 1013.1
20260831035018 84 110 2.6 4.3 0.00 0.00 0.00 79 1013.0
20260831034918 84 195 2.6 4.3 0.00 0.00 0.00 79 1013.0
20260831034818 84 145 1.7 4.3 0.00 0.00 0.00 79 1013.0
20260831034718 84 186 1.7 4.3 0.00 0.00 0.00 79 1012.9
20260831034617 84 165 0.9 4.3 0.00 0.00 0.00 79 1013.0
20260831034519 84 116 0.9 3.5 0.00 0.00 0.00 79 1013.0
20260831034418 84 188 1.7 3.5 0.00 0.00 0.00 79 1013.0
20260831034319 84 190 0.9 3.5 0.00 0.00 0.00 79 1012.9
20260831034218 84 128 0.0 3.5 0.00 0.00 0.00 79 1013.0
20260831034117 84 140 0.0 3.5 0.00 0.00 0.00 79 1013.0
20260831034019 84 140 0.9 3.5 0.00 0.00 0.00 79 1013.0
20260831033918 84 138 0.9 3.5 0.00 0.00 0.00 79 1013.0
20260831033817 84 176 1.7 3.5 0.00 0.00 0.00 79 1012.9
20260831033717 84 166 0.0 3.5 0.00 0.00 0.00 79 1013.0
20260831033619 84 166 0.0 3.5 0.00 0.00 0.00 79 1013.0
20260831033517 84 166 0.0 3.5 0.00 0.00 0.00 79 1013.0
20260831033416 84 166 0.0 3.5 0.00 0.00 0.00 79 1013.0
20260831033318 84 168 0.0 3.5 0.00 0.00 0.00 78 1012.9
20260831033216 84 168 0.9 3.5 0.00 0.00 0.00 78 1012.9
20260831033118 84 171 1.7 3.5 0.00 0.00 0.00 78 1012.9
20260831033017 85 171 1.7 3.5 0.00 0.00 0.00 78 1012.9
20260831032919 85 100 0.9 5.2 0.00 0.00 0.00 78 1013.0
20260831032816 85 148 0.9 5.2 0.00 0.00 0.00 78 1012.9
20260831032717 85 149 1.7 5.2 0.00 0.00 0.00 78 1013.0
20260831032618 85 162 1.7 5.2 0.00 0.00 0.00 78 1012.9
20260831032516 85 168 1.7 5.2 0.00 0.00 0.00 78 1013.0
20260831032417 85 145 0.9 5.2 0.00 0.00 0.00 78 1012.9
20260831032316 85 142 0.9 5.2 0.00 0.00 0.00 78 1012.9
20260831032218 85 154 1.7 5.2 0.00 0.00 0.00 78 1012.8
20260831032117 85 173 1.7 5.2 0.00 0.00 0.00 78 1012.9
20260831032017 85 158 1.7 5.2 0.00 0.00 0.00 78 1012.8
20260831031919 85 141 1.7 5.2 0.00 0.00 0.00 78 1012.9
20260831031817 85 154 2.6 5.2 0.00 0.00 0.00 77 1012.8
20260831031719 85 147 1.7 5.2 0.00 0.00 0.00 77 1012.8
20260831031619 85 93 1.7 5.2 0.00 0.00 0.00 77 1012.9
20260831031517 85 128 1.7 5.2 0.00 0.00 0.00 77 1012.8
20260831031417 85 145 1.7 5.2 0.00 0.00 0.00 77 1012.9
20260831031316 85 152 1.7 6.1 0.00 0.00 0.00 77 1012.8
20260831031217 85 123 2.6 6.1 0.00 0.00 0.00 77 1012.9
20260831031118 85 164 3.5 6.1 0.00 0.00 0.00 77 1012.8
20260831031016 85 148 3.5 6.1 0.00 0.00 0.00 76 1012.8
20260831030916 85 113 2.6 6.1 0.00 0.00 0.00 76 1012.8
20260831030818 85 137 1.7 6.1 0.00 0.00 0.00 76 1012.7
20260831030717 85 135 2.6 6.1 0.00 0.00 0.00 76 1012.7
20260831030617 85 189 3.5 6.1 0.00 0.00 0.00 76 1012.8
20260831030518 85 152 3.5 7.8 0.00 0.00 0.00 76 1012.8
20260831030416 86 165 2.6 8.7 0.00 0.00 0.00 76 1012.7
20260831030317 86 140 2.6 8.7 0.00 0.00 0.00 75 1012.6
20260831030217 86 151 2.6 8.7 0.00 0.00 0.00 75 1012.6
20260831030117 86 159 1.7 8.7 0.00 0.00 0.00 75 1012.6
20260831030017 86 134 2.6 9.6 0.00 0.00 0.00 75 1012.6
20260831025917 86 151 3.5 9.6 0.00 0.00 0.00 75 1012.6
20260831025818 86 169 4.3 9.6 0.00 0.00 0.00 75 1012.5
20260831025716 86 151 4.3 9.6 0.00 0.00 0.00 75 1012.6
20260831025618 86 162 4.3 9.6 0.00 0.00 0.00 75 1012.5
20260831025517 86 190 3.5 9.6 0.00 0.00 0.00 75 1012.5
20260831025417 86 196 3.5 9.6 0.00 0.00 0.00 74 1012.4
20260831025316 86 216 4.3 9.6 0.00 0.00 0.00 74 1012.4
20260831025216 86 173 5.2 9.6 0.00 0.00 0.00 74 1012.4
20260831025117 86 165 4.3 9.6 0.00 0.00 0.00 74 1012.4
20260831025016 86 200 5.2 9.6 0.00 0.00 0.00 74 1012.4
20260831024918 86 192 6.1 9.6 0.00 0.00 0.00 74 1012.4
20260831024818 86 111 5.2 9.6 0.00 0.00 0.00 74 1012.4
20260831024716 86 183 5.2 9.6 0.00 0.00 0.00 74 1012.3
20260831024616 86 227 4.3 9.6 0.00 0.00 0.00 74 1012.4
20260831024516 86 203 3.5 7.8 0.00 0.00 0.00 74 1012.4
20260831024417 86 145 3.5 7.8 0.00 0.00 0.00 74 1012.4
20260831024316 86 96 2.6 6.1 0.00 0.00 0.00 74 1012.5
20260831024218 86 221 2.6 6.1 0.00 0.00 0.00 74 1012.5
20260831024117 86 164 2.6 6.1 0.00 0.00 0.00 74 1012.4
20260831024017 86 155 2.6 6.1 0.00 0.00 0.00 73 1012.4
20260831023916 86 133 2.6 6.1 0.00 0.00 0.00 73 1012.4
20260831023815 86 149 2.6 6.1 0.00 0.00 0.00 73 1012.4
20260831023717 86 137 2.6 5.2 0.00 0.00 0.00 73 1012.3
20260831023617 86 113 2.6 5.2 0.00 0.00 0.00 73 1012.4
20260831023516 86 130 2.6 5.2 0.00 0.00 0.00 73 1012.4
20260831023416 86 134 3.5 5.2 0.00 0.00 0.00 73 1012.4
20260831023317 86 148 3.5 5.2 0.00 0.00 0.00 73 1012.4
20260831023216 86 107 1.7 5.2 0.00 0.00 0.00 72 1012.3
20260831023116 86 80 1.7 5.2 0.00 0.00 0.00 72 1012.2
20260831023017 86 134 3.5 5.2 0.00 0.00 0.00 72 1012.3
20260831022916 86 159 2.6 5.2 0.00 0.00 0.00 72 1012.2
20260831022815 86 154 2.6 5.2 0.00 0.00 0.00 72 1012.2
20260831022716 86 118 2.6 5.2 0.00 0.00 0.00 72 1012.2
20260831022616 86 144 2.6 5.2 0.00 0.00 0.00 71 1012.3
20260831022515 87 89 2.6 5.2 0.00 0.00 0.00 71 1012.2
20260831022415 86 133 2.6 5.2 0.00 0.00 0.00 71 1012.2
20260831022315 87 128 2.6 5.2 0.00 0.00 0.00 71 1012.2
20260831022216 87 158 3.5 5.2 0.00 0.00 0.00 71 1012.1
20260831022114 87 131 1.7 5.2 0.00 0.00 0.00 71 1012.2
20260831022011 87 148 0.9 6.1 0.00 0.00 0.00 71 1012.1
20260831021910 87 131 0.9 6.1 0.00 0.00 0.00 71 1012.0
20260831021809 87 130 1.7 6.1 0.00 0.00 0.00 70 1012.1
20260831021707 87 144 1.7 6.1 0.00 0.00 0.00 70 1012.1
20260831021605 87 125 1.7 6.1 0.00 0.00 0.00 70 1012.0
20260831021505 87 155 3.5 6.1 0.00 0.00 0.00 70 1011.9
20260831021403 87 214 2.6 6.1 0.00 0.00 0.00 70 1011.9
20260831021302 87 100 2.6 7.8 0.00 0.00 0.00 70 1011.9
20260831021202 87 166 3.5 7.8 0.00 0.00 0.00 70 1011.9
20260831021104 87 138 3.5 9.6 0.00 0.00 0.00 70 1011.8
20260831021003 87 172 3.5 9.6 0.00 0.00 0.00 70 1011.9
20260831020903 87 171 2.6 9.6 0.00 0.00 0.00 70 1011.8
20260831020803 87 148 2.6 9.6 0.00 0.00 0.00 70 1011.9
20260831020703 87 195 1.7 9.6 0.00 0.00 0.00 70 1011.9
20260831020602 87 207 2.6 9.6 0.00 0.00 0.00 69 1011.9
20260831020502 87 134 4.3 9.6 0.00 0.00 0.00 69 1011.9
20260831020403 87 173 5.2 9.6 0.00 0.00 0.00 69 1012.0
20260831020303 87 148 5.2 9.6 0.00 0.00 0.00 69 1011.9
20260831020202 87 134 4.3 9.6 0.00 0.00 0.00 69 1011.8
20260831020003 87 169 3.5 9.6 0.00 0.00 0.00 69 1011.8
20260831015901 87 99 3.5 7.8 0.00 0.00 0.00 69 1011.8
20260831015802 87 61 2.6 7.8 0.00 0.00 0.00 69 1011.8
20260831015703 88 99 2.6 7.8 0.00 0.00 0.00 68 1011.8
20260831015602 88 131 3.5 7.8 0.00 0.00 0.00 68 1011.8
20260831015503 88 182 3.5 7.8 0.00 0.00 0.00 68 1011.7
20260831015404 88 199 3.5 7.8 0.00 0.00 0.00 68 1011.8
20260831015305 88 165 3.5 7.8 0.00 0.00 0.00 68 1011.7
20260831015202 88 140 3.5 7.8 0.00 0.00 0.00 68 1011.7
20260831015103 88 186 3.5 7.8 0.00 0.00 0.00 67 1011.7
20260831015003 88 176 3.5 7.8 0.00 0.00 0.00 67 1011.7
20260831014902 88 97 3.5 7.8 0.00 0.00 0.00 67 1011.7
20260831014802 88 135 2.6 7.8 0.00 0.00 0.00 66 1011.7
20260831014703 88 192 3.5 7.8 0.00 0.00 0.00 66 1011.6
20260831014602 88 104 2.6 7.8 0.00 0.00 0.00 66 1011.6
20260831014502 88 138 3.5 7.8 0.00 0.00 0.00 66 1011.7
20260831014403 88 165 3.5 7.8 0.00 0.00 0.00 66 1011.6
20260831014303 88 102 3.5 7.8 0.00 0.00 0.00 65 1011.7
20260831014201 88 169 2.6 6.1 0.00 0.00 0.00 65 1011.6
20260831014102 88 113 2.6 6.1 0.00 0.00 0.00 65 1011.7
20260831014003 88 161 2.6 6.1 0.00 0.00 0.00 65 1011.7
20260831013903 88 172 2.6 6.1 0.00 0.00 0.00 65 1011.6
20260831013802 88 147 1.7 6.1 0.00 0.00 0.00 65 1011.7
20260831013702 88 203 1.7 6.1 0.00 0.00 0.00 64 1011.6
20260831013602 89 158 2.6 6.1 0.00 0.00 0.00 64 1011.6
20260831013500 89 131 3.5 6.1 0.00 0.00 0.00 64 1011.7
20260831013359 89 155 3.5 6.1 0.00 0.00 0.00 64 1011.6
20260831013258 89 189 2.6 7.8 0.00 0.00 0.00 64 1011.6
20260831013155 89 182 1.7 7.8 0.00 0.00 0.00 64 1011.6
20260831013054 89 100 2.6 7.8 0.00 0.00 0.00 64 1011.6
20260831012953 89 133 2.6 7.8 0.00 0.00 0.00 64 1011.6
20260831012852 89 137 3.5 7.8 0.00 0.00 0.00 64 1011.6
20260831012751 89 138 3.5 7.8 0.00 0.00 0.00 64 1011.5
20260831012648 89 161 3.5 7.8 0.00 0.00 0.00 64 1011.6
20260831012547 89 130 3.5 7.8 0.00 0.00 0.00 63 1011.5
20260831012443 89 152 4.3 7.8 0.00 0.00 0.00 63 1011.6
20260831012340 89 158 3.5 7.8 0.00 0.00 0.00 63 1011.5
20260831012238 89 134 2.6 4.3 0.00 0.00 0.00 63 1011.5
20260831012137 89 159 2.6 4.3 0.00 0.00 0.00 63 1011.6
20260831012037 89 144 2.6 5.2 0.00 0.00 0.00 63 1011.5
20260831011934 89 159 1.7 7.8 0.00 0.00 0.00 62 1011.6
20260831011834 89 121 0.9 7.8 0.00 0.00 0.00 62 1011.5
20260831011732 89 135 1.7 7.8 0.00 0.00 0.00 62 1011.6
20260831011631 89 138 1.7 7.8 0.00 0.00 0.00 62 1011.6
20260831011531 89 149 1.7 7.8 0.00 0.00 0.00 62 1011.5
20260831011431 89 149 1.7 7.8 0.00 0.00 0.00 61 1011.5
20260831011332 89 144 1.7 7.8 0.00 0.00 0.00 61 1011.6
20260831011232 89 109 3.5 7.8 0.00 0.00 0.00 61 1011.5
20260831011131 89 130 4.3 7.8 0.00 0.00 0.00 61 1011.5
20260831011030 89 135 1.7 7.8 0.00 0.00 0.00 60 1011.5
20260831010931 89 179 1.7 5.2 0.00 0.00 0.00 60 1011.5
20260831010831 89 141 2.6 5.2 0.00 0.00 0.00 60 1011.6
20260831010731 89 116 2.6 5.2 0.00 0.00 0.00 60 1011.5
20260831010632 89 104 2.6 5.2 0.00 0.00 0.00 60 1011.5
20260831010532 89 99 2.6 5.2 0.00 0.00 0.00 60 1011.5
20260831010432 90 141 2.6 5.2 0.00 0.00 0.00 60 1011.5
20260831010332 90 102 1.7 5.2 0.00 0.00 0.00 59 1011.5
20260831010231 90 133 1.7 7.8 0.00 0.00 0.00 59 1011.5
20260831010132 90 113 2.6 7.8 0.00 0.00 0.00 59 1011.5
20260831010032 90 140 3.5 7.8 0.00 0.00 0.00 59 1011.5
20260831005931 90 94 3.5 7.8 0.00 0.00 0.00 59 1011.4
20260831005832 90 103 3.5 7.8 0.00 0.00 0.00 58 1011.4
20260831005732 90 124 3.5 7.8 0.00 0.00 0.00 58 1011.4
20260831005631 90 123 3.5 11.3 0.00 0.00 0.00 58 1011.4
20260831005533 90 80 3.5 11.3 0.00 0.00 0.00 58 1011.4
20260831005431 90 128 3.5 11.3 0.00 0.00 0.00 58 1011.4
20260831005331 90 110 3.5 11.3 0.00 0.00 0.00 57 1011.4
20260831005230 90 103 3.5 11.3 0.00 0.00 0.00 57 1011.4
20260831005132 90 121 2.6 11.3 0.00 0.00 0.00 57 1011.4
20260831005032 91 94 2.6 11.3 0.00 0.00 0.00 57 1011.3
20260831004931 91 128 3.5 11.3 0.00 0.00 0.00 57 1011.4
20260831004832 91 145 5.2 11.3 0.00 0.00 0.00 57 1011.4
20260831004732 91 151 5.2 11.3 0.00 0.00 0.00 56 1011.4
20260831004631 91 114 3.5 8.7 0.00 0.00 0.00 56 1011.4
20260831004531 91 116 2.6 8.7 0.00 0.00 0.00 56 1011.4
20260831004431 91 83 3.5 8.7 0.00 0.00 0.00 56 1011.4
20260831004331 91 135 5.2 8.7 0.00 0.00 0.00 56 1011.3
20260831004231 91 109 3.5 8.7 0.00 0.00 0.00 55 1011.4
20260831004132 91 100 3.5 7.8 0.00 0.00 0.00 55 1011.4
20260831004031 91 164 4.3 7.8 0.00 0.00 0.00 55 1011.4
20260831003931 91 104 4.3 9.6 0.00 0.00 0.00 55 1011.4
20260831003832 91 117 3.5 9.6 0.00 0.00 0.00 55 1011.4
20260831003731 91 133 3.5 9.6 0.00 0.00 0.00 54 1011.4
20260831003631 91 110 3.5 10.4 0.00 0.00 0.00 54 1011.4
20260831003531 91 124 3.5 10.4 0.00 0.00 0.00 54 1011.4
20260831003431 91 106 4.3 10.4 0.00 0.00 0.00 54 1011.4
20260831003332 92 116 4.3 10.4 0.00 0.00 0.00 53 1011.4
20260831003232 92 97 4.3 10.4 0.00 0.00 0.00 53 1011.4
20260831003132 92 148 6.1 10.4 0.00 0.00 0.00 53 1011.4
20260831003032 92 107 6.1 10.4 0.00 0.00 0.00 52 1011.4
20260831002931 92 104 4.3 10.4 0.00 0.00 0.00 52 1011.3
20260831002833 92 111 5.2 10.4 0.00 0.00 0.00 51 1011.4
20260831002732 92 127 4.3 10.4 0.00 0.00 0.00 51 1011.4
20260831002633 92 87 4.3 8.7 0.00 0.00 0.00 51 1011.4
20260831002531 92 128 3.5 9.6 0.00 0.00 0.00 51 1011.4
20260831002431 92 78 2.6 9.6 0.00 0.00 0.00 50 1011.4
20260831002332 92 99 4.3 9.6 0.00 0.00 0.00 49 1011.5
20260831002230 92 111 4.3 9.6 0.00 0.00 0.00 49 1011.4
20260831002128 92 113 4.3 9.6 0.00 0.00 0.00 49 1011.5
20260831002027 92 176 5.2 9.6 0.00 0.00 0.00 48 1011.5
20260831001924 92 102 4.3 10.4 0.00 0.00 0.00 49 1011.4
20260831001823 92 103 5.2 10.4 0.00 0.00 0.00 49 1011.4
20260831001719 92 140 6.1 10.4 0.00 0.00 0.00 49 1011.4
20260831001616 92 96 6.1 10.4 0.00 0.00 0.00 49 1011.4
20260831001517 92 118 6.1 10.4 0.00 0.00 0.00 49 1011.5
20260831001414 92 89 7.0 10.4 0.00 0.00 0.00 49 1011.4
20260831001313 93 131 7.0 10.4 0.00 0.00 0.00 49 1011.4
20260831001213 93 137 6.1 10.4 0.00 0.00 0.00 50 1011.5
20260831001113 93 104 5.2 10.4 0.00 0.00 0.00 50 1011.4
20260831001012 93 96 4.3 10.4 0.00 0.00 0.00 50 1011.4
20260831000913 93 116 4.3 10.4 0.00 0.00 0.00 50 1011.3
20260831000815 93 148 4.3 10.4 0.00 0.00 0.00 50 1011.4
20260831000713 93 161 4.3 10.4 0.00 0.00 0.00 51 1011.4
20260831000612 93 94 5.2 10.4 0.00 0.00 0.00 51 1011.4
20260831000512 93 94 4.3 10.4 0.00 0.00 0.00 51 1011.4
20260831000412 93 138 5.2 10.4 0.00 0.00 0.00 52 1011.3
20260831000312 93 148 5.2 12.2 0.00 0.00 0.00 52 1011.3
20260831000212 93 79 5.2 12.2 0.00 0.00 0.00 53 1011.3
20260831000114 93 106 5.2 12.2 0.00 0.00 0.00 53 1011.3
20260831000012 93 102 4.3 12.2 0.00 0.00 0.00 54 1011.3
20260830235912 93 176 3.5 12.2 0.00 0.00 0.00 54 1011.3
20260830235815 93 90 4.3 12.2 0.00 0.00 0.00 54 1011.4
20260830235712 93 151 5.2 12.2 0.00 0.00 0.00 54 1011.3
20260830235612 93 128 7.0 12.2 0.00 0.00 0.00 53 1011.4
20260830235512 93 102 8.7 12.2 0.00 0.00 0.00 54 1011.3
20260830235413 93 120 6.1 12.2 0.00 0.00 0.00 54 1011.3
20260830235313 93 117 5.2 12.2 0.00 0.00 0.00 54 1011.3
20260830235213 93 147 5.2 12.2 0.00 0.00 0.00 53 1011.3
20260830235113 93 96 4.3 12.2 0.00 0.00 0.00 54 1011.2
20260830235012 93 138 4.3 12.2 0.00 0.00 0.00 53 1011.3
20260830234912 93 120 6.1 12.2 0.00 0.00 0.00 53 1011.3
20260830234812 93 137 7.8 12.2 0.00 0.00 0.00 53 1011.2
20260830234715 93 80 7.0 12.2 0.00 0.00 0.00 53 1011.3
20260830234611 94 103 6.1 11.3 0.00 0.00 0.00 52 1011.3
20260830234511 94 124 7.0 11.3 0.00 0.00 0.00 51 1011.3
20260830234413 94 111 7.0 11.3 0.00 0.00 0.00 51 1011.3
20260830234313 94 123 5.2 10.4 0.00 0.00 0.00 50 1011.3
20260830234212 94 123 4.3 10.4 0.00 0.00 0.00 50 1011.3
20260830234113 94 117 4.3 10.4 0.00 0.00 0.00 50 1011.2
20260830234014 94 109 5.2 10.4 0.00 0.00 0.00 50 1011.2
20260830233913 94 152 5.2 10.4 0.00 0.00 0.00 50 1011.2
20260830233812 94 140 4.3 10.4 0.00 0.00 0.00 50 1011.2
20260830233713 94 120 4.3 10.4 0.00 0.00 0.00 50 1011.2
20260830233611 94 104 4.3 10.4 0.00 0.00 0.00 49 1011.2
20260830233511 95 195 3.5 10.4 0.00 0.00 0.00 49 1011.2
20260830233412 95 106 3.5 10.4 0.00 0.00 0.00 49 1011.1
20260830233313 95 89 4.3 10.4 0.00 0.00 0.00 48 1011.2
20260830233212 95 104 4.3 10.4 0.00 0.00 0.00 48 1011.2
20260830233111 95 141 6.1 10.4 0.00 0.00 0.00 48 1011.1
20260830233012 95 116 6.1 10.4 0.00 0.00 0.00 47 1011.2
20260830232912 95 80 4.3 10.4 0.00 0.00 0.00 48 1011.2
20260830232811 95 93 4.3 10.4 0.00 0.00 0.00 48 1011.2
20260830232712 95 137 4.3 13.9 0.00 0.00 0.00 48 1011.2
20260830232613 95 100 4.3 13.9 0.00 0.00 0.00 48 1011.3
20260830232512 95 196 5.2 13.9 0.00 0.00 0.00 48 1011.3
20260830232412 95 96 4.3 13.9 0.00 0.00 0.00 49 1011.3
20260830232312 95 73 4.3 13.9 0.00 0.00 0.00 50 1011.2
20260830232212 95 100 5.2 13.9 0.00 0.00 0.00 50 1011.3
20260830232111 95 128 5.2 13.9 0.00 0.00 0.00 51 1011.2
20260830232011 95 135 5.2 13.9 0.00 0.00 0.00 51 1011.2
20260830231912 95 117 6.1 13.9 0.00 0.00 0.00 51 1011.2
20260830231811 95 154 6.1 13.9 0.00 0.00 0.00 51 1011.2
20260830231711 95 186 3.5 9.6 0.00 0.00 0.00 52 1011.1
20260830231612 95 104 3.5 9.6 0.00 0.00 0.00 52 1011.1
20260830231512 95 121 3.5 12.2 0.00 0.00 0.00 53 1011.1
20260830231411 95 161 5.2 12.2 0.00 0.00 0.00 53 1011.2
20260830231312 95 80 5.2 12.2 0.00 0.00 0.00 53 1011.1
20260830231212 95 103 5.2 12.2 0.00 0.00 0.00 52 1011.2
20260830231112 95 86 5.2 12.2 0.00 0.00 0.00 52 1011.1
20260830231012 95 100 4.3 12.2 0.00 0.00 0.00 52 1011.2
20260830230912 95 241 5.2 12.2 0.00 0.00 0.00 52 1011.2
20260830230811 95 106 6.1 12.2 0.00 0.00 0.00 52 1011.2
20260830230712 95 107 7.8 12.2 0.00 0.00 0.00 52 1011.3
20260830230612 95 92 7.8 12.2 0.00 0.00 0.00 52 1011.3
20260830230511 95 96 5.2 11.3 0.00 0.00 0.00 52 1011.2
20260830230411 95 107 4.3 9.6 0.00 0.00 0.00 52 1011.2
20260830230311 95 110 4.3 9.6 0.00 0.00 0.00 52 1011.2
20260830230213 95 116 5.2 9.6 0.00 0.00 0.00 51 1011.3
20260830230111 95 121 6.1 9.6 0.00 0.00 0.00 51 1011.2
20260830230010 96 113 4.3 9.6 0.00 0.00 0.00 51 1011.3
20260830225911 96 120 4.3 9.6 0.00 0.00 0.00 52 1011.2
20260830225810 96 148 4.3 9.6 0.00 0.00 0.00 51 1011.2
20260830225711 96 131 4.3 9.6 0.00 0.00 0.00 51 1011.2
20260830225611 96 89 5.2 9.6 0.00 0.00 0.00 51 1011.1
20260830225512 96 114 6.1 9.6 0.00 0.00 0.00 51 1011.3
20260830225411 96 99 6.1 9.6 0.00 0.00 0.00 51 1011.2
20260830225312 96 120 5.2 9.6 0.00 0.00 0.00 50 1011.2
20260830225212 96 190 4.3 9.6 0.00 0.00 0.00 50 1011.2
20260830225112 96 192 5.2 9.6 0.00 0.00 0.00 50 1011.1
20260830225012 96 149 5.2 9.6 0.00 0.00 0.00 50 1011.2
20260830224912 96 123 5.2 9.6 0.00 0.00 0.00 50 1011.1
20260830224812 97 200 4.3 8.7 0.00 0.00 0.00 51 1011.2
20260830224711 97 117 3.5 8.7 0.00 0.00 0.00 51 1011.2
20260830224610 97 155 3.5 8.7 0.00 0.00 0.00 50 1011.2
20260830224511 96 162 3.5 8.7 0.00 0.00 0.00 50 1011.2
20260830224411 97 100 3.5 8.7 0.00 0.00 0.00 50 1011.2
20260830224310 97 87 3.5 8.7 0.00 0.00 0.00 50 1011.2
20260830224211 97 120 2.6 10.4 0.00 0.00 0.00 50 1011.1
20260830224112 97 162 3.5 10.4 0.00 0.00 0.00 49 1011.2
20260830224010 97 182 3.5 10.4 0.00 0.00 0.00 50 1011.2
20260830223910 97 158 4.3 10.4 0.00 0.00 0.00 50 1011.2
20260830223811 97 109 3.5 11.3 0.00 0.00 0.00 50 1011.2
20260830223711 97 114 3.5 11.3 0.00 0.00 0.00 50 1011.1
20260830223611 96 87 3.5 11.3 0.00 0.00 0.00 49 1011.2
20260830223510 96 144 3.5 11.3 0.00 0.00 0.00 50 1011.2
20260830223412 96 185 5.2 11.3 0.00 0.00 0.00 50 1011.1
20260830223310 96 154 6.1 11.3 0.00 0.00 0.00 50 1011.1
20260830223210 96 116 5.2 11.3 0.00 0.00 0.00 50 1011.1
20260830223112 96 92 5.2 11.3 0.00 0.00 0.00 50 1011.1
20260830223010 97 137 7.8 11.3 0.00 0.00 0.00 50 1011.2
20260830222910 97 117 7.8 11.3 0.00 0.00 0.00 50 1011.1
20260830222811 97 92 5.2 11.3 0.00 0.00 0.00 49 1011.1
20260830222712 97 149 3.5 8.7 0.00 0.00 0.00 50 1011.1
20260830222611 97 73 3.5 8.7 0.00 0.00 0.00 50 1011.1
20260830222510 97 133 3.5 8.7 0.00 0.00 0.00 50 1011.1
20260830222412 97 65 3.5 8.7 0.00 0.00 0.00 50 1011.1
20260830222310 97 182 3.5 8.7 0.00 0.00 0.00 50 1011.1
20260830222211 97 138 4.3 8.7 0.00 0.00 0.00 49 1011.1
20260830222111 97 142 4.3 8.7 0.00 0.00 0.00 49 1011.1
20260830222010 98 109 5.2 9.6 0.00 0.00 0.00 49 1011.2
20260830221909 97 147 6.1 9.6 0.00 0.00 0.00 49 1011.1
20260830221810 98 92 5.2 9.6 0.00 0.00 0.00 48 1011.2
20260830221710 98 87 5.2 9.6 0.00 0.00 0.00 49 1011.1
20260830221610 98 107 4.3 9.6 0.00 0.00 0.00 49 1011.2
20260830221509 98 113 3.5 9.6 0.00 0.00 0.00 49 1011.1
20260830221411 98 130 4.3 9.6 0.00 0.00 0.00 49 1011.1
20260830221311 98 130 4.3 12.2 0.00 0.00 0.00 49 1011.1
20260830221211 98 130 4.3 12.2 0.00 0.00 0.00 49 1011.1
20260830221111 98 130 4.3 12.2 0.00 0.00 0.00 49 1011.1
20260830221012 98 106 3.5 12.2 0.00 0.00 0.00 48 1011.2
20260830220910 98 114 3.5 12.2 0.00 0.00 0.00 48 1011.1
20260830220809 98 166 4.3 12.2 0.00 0.00 0.00 48 1011.1
20260830220710 98 152 4.3 12.2 0.00 0.00 0.00 48 1011.2
20260830220611 97 123 4.3 12.2 0.00 0.00 0.00 49 1011.1
20260830220510 97 90 7.8 12.2 0.00 0.00 0.00 48 1011.2
20260830220411 97 109 7.8 12.2 0.00 0.00 0.00 48 1011.2
20260830220311 98 113 6.1 10.4 0.00 0.00 0.00 47 1011.2
20260830220209 98 116 5.2 10.4 0.00 0.00 0.00 48 1011.1
20260830220109 98 55 3.5 10.4 0.00 0.00 0.00 48 1011.1
20260830220009 98 113 4.3 10.4 0.00 0.00 0.00 49 1011.1
20260830215909 97 142 4.3 10.4 0.00 0.00 0.00 49 1011.0
20260830215810 97 120 6.1 11.3 0.00 0.00 0.00 48 1011.0
20260830215710 97 125 7.8 11.3 0.00 0.00 0.00 48 1011.0
20260830215611 97 90 7.8 11.3 0.00 0.00 0.00 48 1011.0
20260830215509 97 125 6.1 11.3 0.00 0.00 0.00 48 1011.1
20260830215409 97 104 5.2 11.3 0.00 0.00 0.00 49 1011.0
20260830215311 97 165 7.0 11.3 0.00 0.00 0.00 49 1011.0
20260830215210 97 96 7.0 11.3 0.00 0.00 0.00 49 1011.1
20260830215110 97 103 7.0 11.3 0.00 0.00 0.00 49 1011.1
20260830215009 97 118 7.0 11.3 0.00 0.00 0.00 49 1011.1
20260830214910 97 130 5.2 11.3 0.00 0.00 0.00 49 1011.2
20260830214809 97 102 4.3 8.7 0.00 0.00 0.00 50 1011.1
20260830214709 97 183 6.1 8.7 0.00 0.00 0.00 50 1011.1
20260830214610 97 111 5.2 8.7 0.00 0.00 0.00 50 1011.1
20260830214509 97 109 5.2 8.7 0.00 0.00 0.00 50 1011.2
20260830214408 97 83 4.3 8.7 0.00 0.00 0.00 50 1011.2
20260830214307 97 106 3.5 9.6 0.00 0.00 0.00 50 1011.2
20260830214204 97 134 3.5 12.2 0.00 0.00 0.00 50 1011.2
20260830214103 98 109 7.0 12.2 0.00 0.00 0.00 49 1011.2
20260830214004 98 109 7.0 12.2 0.00 0.00 0.00 49 1011.2
20260830213903 98 109 7.0 12.2 0.00 0.00 0.00 49 1011.2
20260830213803 98 109 7.0 13.9 0.00 0.00 0.00 49 1011.2
20260830213704 98 109 7.0 13.9 0.00 0.00 0.00 49 1011.3
20260830213603 98 109 7.0 13.9 0.00 0.00 0.00 49 1011.3
20260830213505 98 109 7.0 13.9 0.00 0.00 0.00 49 1011.3
20260830213403 98 109 7.0 13.9 0.00 0.00 0.00 49 1011.3
20260830213302 98 121 7.0 13.9 0.00 0.00 0.00 49 1011.3
20260830213202 98 107 7.8 13.9 0.00 0.00 0.00 49 1011.4
20260830213104 98 110 7.8 13.9 0.00 0.00 0.00 48 1011.4
20260830213002 98 123 7.8 13.9 0.00 0.00 0.00 48 1011.3
20260830212902 98 117 7.8 13.9 0.00 0.00 0.00 48 1011.3
20260830212802 98 100 5.2 13.0 0.00 0.00 0.00 47 1011.4
20260830212702 98 123 3.5 6.1 0.00 0.00 0.00 46 1011.4
20260830212602 98 86 2.6 5.2 0.00 0.00 0.00 46 1011.4
20260830212502 98 162 3.5 5.2 0.00 0.00 0.00 48 1011.3
20260830212402 97 137 3.5 5.2 0.00 0.00 0.00 48 1011.4
20260830212305 97 133 3.5 5.2 0.00 0.00 0.00 48 1011.4
20260830212202 97 145 3.5 5.2 0.00 0.00 0.00 48 1011.4
20260830212103 97 169 2.6 6.1 0.00 0.00 0.00 47 1011.4
20260830212003 97 134 2.6 6.1 0.00 0.00 0.00 48 1011.4
20260830211901 97 138 2.6 6.1 0.00 0.00 0.00 47 1011.4
20260830211759 98 149 2.6 6.1 0.00 0.00 0.00 47 1011.4
20260830211657 98 161 1.7 6.1 0.00 0.00 0.00 47 1011.5
20260830211555 98 141 2.6 6.1 0.00 0.00 0.00 47 1011.5
20260830211455 98 166 3.5 6.1 0.00 0.00 0.00 47 1011.6
20260830211353 98 141 3.5 9.6 0.00 0.00 0.00 47 1011.5
20260830211252 98 104 3.5 9.6 0.00 0.00 0.00 47 1011.5
20260830211149 98 180 3.5 9.6 0.00 0.00 0.00 47 1011.6
20260830211048 98 169 3.5 9.6 0.00 0.00 0.00 47 1011.5
20260830210947 98 125 4.3 9.6 0.00 0.00 0.00 47 1011.6
20260830210847 98 125 3.5 11.3 0.00 0.00 0.00 47 1011.6
20260830210746 98 107 3.5 12.2 0.00 0.00 0.00 47 1011.6
20260830210645 98 90 4.3 12.2 0.00 0.00 0.00 47 1011.6
20260830210543 98 175 5.2 12.2 0.00 0.00 0.00 46 1011.7
20260830210442 98 151 3.5 12.2 0.00 0.00 0.00 47 1011.6
20260830210338 98 109 3.5 12.2 0.00 0.00 0.00 46 1011.7
20260830210238 98 149 3.5 12.2 0.00 0.00 0.00 47 1011.7
20260830210135 99 106 5.2 12.2 0.00 0.00 0.00 46 1011.7
20260830210033 99 120 7.8 12.2 0.00 0.00 0.00 46 1011.7
20260830205931 99 121 7.8 12.2 0.00 0.00 0.00 46 1011.8
20260830205830 100 118 5.2 9.6 0.00 0.00 0.00 45 1011.8
20260830205730 100 176 5.2 9.6 0.00 0.00 0.00 45 1011.8
20260830205632 100 161 3.5 7.8 0.00 0.00 0.00 45 1011.8
20260830205532 100 230 1.7 7.8 0.00 0.00 0.00 46 1011.8
20260830205431 100 171 1.7 7.8 0.00 0.00 0.00 46 1011.8
20260830205331 100 137 2.6 9.6 0.00 0.00 0.00 46 1011.8
20260830205231 100 243 3.5 9.6 0.00 0.00 0.00 46 1011.7
20260830205132 99 148 3.5 9.6 0.00 0.00 0.00 45 1011.8
20260830205031 99 110 3.5 11.3 0.00 0.00 0.00 45 1011.8
20260830204933 100 175 3.5 11.3 0.00 0.00 0.00 45 1011.8
20260830204831 100 188 4.3 11.3 0.00 0.00 0.00 46 1011.8
20260830204731 100 202 4.3 11.3 0.00 0.00 0.00 46 1011.9
20260830204631 100 248 3.5 11.3 0.00 0.00 0.00 46 1011.9
20260830204532 100 238 4.3 11.3 0.00 0.00 0.00 46 1011.9
20260830204432 100 185 5.2 11.3 0.00 0.00 0.00 46 1011.8
20260830204332 100 196 5.2 11.3 0.00 0.00 0.00 46 1011.9
20260830204233 100 213 7.0 11.3 0.00 0.00 0.00 46 1011.9
20260830204131 100 195 6.1 11.3 0.00 0.00 0.00 46 1012.0
20260830204030 100 202 5.2 8.7 0.00 0.00 0.00 47 1012.0
20260830203931 99 179 4.3 8.7 0.00 0.00 0.00 46 1011.9
20260830203831 99 134 3.5 8.7 0.00 0.00 0.00 46 1012.0
20260830203731 99 151 4.3 7.8 0.00 0.00 0.00 46 1012.0
20260830203630 99 128 4.3 7.8 0.00 0.00 0.00 47 1012.1
20260830203531 98 127 3.5 8.7 0.00 0.00 0.00 46 1012.1
20260830203431 99 111 2.6 8.7 0.00 0.00 0.00 45 1012.1
20260830203330 99 79 2.6 8.7 0.00 0.00 0.00 46 1012.1
20260830203228 99 161 3.5 8.7 0.00 0.00 0.00 46 1012.2
20260830203126 99 166 3.5 8.7 0.00 0.00 0.00 47 1012.2
20260830203024 99 135 3.5 8.7 0.00 0.00 0.00 46 1012.1
20260830202923 99 161 2.6 8.7 0.00 0.00 0.00 47 1012.2
20260830202818 99 125 3.5 8.7 0.00 0.00 0.00 47 1012.2
20260830202716 98 135 4.3 8.7 0.00 0.00 0.00 47 1012.2
20260830202616 99 159 4.3 8.7 0.00 0.00 0.00 47 1012.2
20260830202513 99 199 3.5 8.7 0.00 0.00 0.00 47 1012.3
20260830202412 99 142 4.3 8.7 0.00 0.00 0.00 47 1012.2
20260830202312 99 103 5.2 8.7 0.00 0.00 0.00 47 1012.3
20260830202212 100 96 4.3 8.7 0.00 0.00 0.00 46 1012.2
20260830202112 100 152 3.5 6.1 0.00 0.00 0.00 48 1012.2
20260830202009 99 202 3.5 7.8 0.00 0.00 0.00 47 1012.3
20260830201905 99 154 2.6 7.8 0.00 0.00 0.00 47 1012.2
20260830201808 99 121 2.6 7.8 0.00 0.00 0.00 48 1012.3
20260830201705 99 110 3.5 7.8 0.00 0.00 0.00 48 1012.3
20260830201605 99 152 2.6 7.8 0.00 0.00 0.00 47 1012.3
20260830201506 98 182 3.5 7.8 0.00 0.00 0.00 49 1012.3
20260830201407 98 151 3.5 7.8 0.00 0.00 0.00 48 1012.3
20260830201305 98 87 3.5 7.8 0.00 0.00 0.00 47 1012.3
20260830201206 98 111 4.3 7.8 0.00 0.00 0.00 47 1012.3
20260830201107 98 118 3.5 9.6 0.00 0.00 0.00 47 1012.3
20260830201005 98 124 0.9 9.6 0.00 0.00 0.00 47 1012.4
20260830200905 98 257 1.7 9.6 0.00 0.00 0.00 48 1012.3
20260830200808 98 233 3.5 9.6 0.00 0.00 0.00 47 1012.4
20260830200705 98 233 3.5 9.6 0.00 0.00 0.00 48 1012.4
20260830200605 98 283 2.6 9.6 0.00 0.00 0.00 48 1012.4
20260830200505 98 210 3.5 9.6 0.00 0.00 0.00 48 1012.4
20260830200407 98 230 6.1 9.6 0.00 0.00 0.00 48 1012.4
20260830200305 98 248 7.0 9.6 0.00 0.00 0.00 49 1012.5
20260830200206 98 231 7.8 9.6 0.00 0.00 0.00 49 1012.5
20260830200105 98 244 6.1 9.6 0.00 0.00 0.00 48 1012.5
20260830200005 98 241 5.2 9.6 0.00 0.00 0.00 48 1012.5
20260830195905 98 195 5.2 9.6 0.00 0.00 0.00 49 1012.6
20260830195805 98 257 6.1 9.6 0.00 0.00 0.00 49 1012.6
20260830195707 98 250 6.1 9.6 0.00 0.00 0.00 48 1012.6
20260830195604 98 235 5.2 9.6 0.00 0.00 0.00 48 1012.6
20260830195504 99 250 5.2 9.6 0.00 0.00 0.00 48 1012.6
20260830195405 99 241 2.6 9.6 0.00 0.00 0.00 49 1012.6
20260830195305 98 114 1.7 6.1 0.00 0.00 0.00 49 1012.6
20260830195204 98 113 3.5 7.8 0.00 0.00 0.00 48 1012.5
20260830195104 98 286 5.2 7.8 0.00 0.00 0.00 48 1012.7
20260830195007 99 224 3.5 7.8 0.00 0.00 0.00 49 1012.6
20260830194903 98 235 1.7 7.8 0.00 0.00 0.00 50 1012.7
20260830194803 98 152 1.7 7.8 0.00 0.00 0.00 49 1012.7
20260830194701 98 193 1.7 7.8 0.00 0.00 0.00 49 1012.7
20260830194601 98 157 2.6 7.8 0.00 0.00 0.00 49 1012.7
20260830194503 98 188 3.5 7.8 0.00 0.00 0.00 51 1012.8
20260830194402 97 100 5.2 7.8 0.00 0.00 0.00 50 1012.8
20260830194302 98 111 4.3 7.8 0.00 0.00 0.00 50 1012.8
20260830194203 98 99 3.5 7.8 0.00 0.00 0.00 49 1012.9
20260830194102 98 144 3.5 7.8 0.00 0.00 0.00 49 1012.8
20260830194004 98 151 3.5 7.8 0.00 0.00 0.00 50 1012.9
20260830193903 98 182 3.5 6.1 0.00 0.00 0.00 50 1012.9
20260830193804 97 233 4.3 8.7 0.00 0.00 0.00 50 1012.9
20260830193702 98 240 4.3 8.7 0.00 0.00 0.00 49 1012.9
20260830193602 98 262 3.5 8.7 0.00 0.00 0.00 49 1013.0
20260830193504 98 233 3.5 8.7 0.00 0.00 0.00 49 1013.0
20260830193404 98 238 2.6 8.7 0.00 0.00 0.00 50 1013.1
20260830193303 98 4 1.7 8.7 0.00 0.00 0.00 49 1013.1
20260830193204 98 110 4.3 8.7 0.00 0.00 0.00 49 1013.1
20260830193103 98 110 4.3 8.7 0.00 0.00 0.00 49 1013.1
20260830193004 98 110 4.3 8.7 0.00 0.00 0.00 49 1013.1
20260830192903 98 97 3.5 8.7 0.00 0.00 0.00 49 1013.2
20260830192804 98 96 3.5 8.7 0.00 0.00 0.00 50 1013.2
20260830192702 98 175 3.5 8.7 0.00 0.00 0.00 49 1013.2
20260830192602 98 93 2.6 8.7 0.00 0.00 0.00 50 1013.3
20260830192503 98 202 4.3 8.7 0.00 0.00 0.00 50 1013.2
20260830192403 98 165 5.2 8.7 0.00 0.00 0.00 50 1013.2
20260830192305 98 152 3.5 8.7 0.00 0.00 0.00 51 1013.3
20260830192202 97 106 3.5 7.8 0.00 0.00 0.00 51 1013.3
20260830192104 97 276 3.5 7.8 0.00 0.00 0.00 50 1013.3
20260830192001 97 262 3.5 7.8 0.00 0.00 0.00 50 1013.3
20260830191903 98 279 4.3 7.8 0.00 0.00 0.00 50 1013.3
20260830191804 98 245 5.2 7.8 0.00 0.00 0.00 50 1013.3
20260830191703 98 252 5.2 7.8 0.00 0.00 0.00 49 1013.4
20260830191602 98 220 4.3 7.8 0.00 0.00 0.00 51 1013.4
20260830191503 98 227 3.5 5.2 0.00 0.00 0.00 51 1013.4
20260830191404 97 230 2.6 5.2 0.00 0.00 0.00 51 1013.4
20260830191304 97 307 1.7 5.2 0.00 0.00 0.00 50 1013.5
20260830191203 97 309 1.7 5.2 0.00 0.00 0.00 49 1013.4
20260830191104 98 254 1.7 5.2 0.00 0.00 0.00 49 1013.6
20260830191004 98 252 1.7 5.2 0.00 0.00 0.00 50 1013.5
20260830190902 98 207 2.6 8.7 0.00 0.00 0.00 49 1013.6
20260830190802 98 92 2.6 8.7 0.00 0.00 0.00 49 1013.6
20260830190702 98 147 2.6 8.7 0.00 0.00 0.00 50 1013.5
20260830190602 98 186 3.5 8.7 0.00 0.00 0.00 49 1013.6
20260830190503 98 110 3.5 8.7 0.00 0.00 0.00 49 1013.5
20260830190403 98 165 1.7 8.7 0.00 0.00 0.00 50 1013.5
20260830190302 98 169 0.9 8.7 0.00 0.00 0.00 51 1013.6
20260830190202 98 90 1.7 8.7 0.00 0.00 0.00 51 1013.6
20260830190103 98 118 3.5 8.7 0.00 0.00 0.00 52 1013.7
20260830190004 97 120 3.5 8.7 0.00 0.00 0.00 51 1013.7
20260830185904 97 96 1.7 6.1 0.00 0.00 0.00 51 1013.6
20260830185804 97 85 1.7 6.1 0.00 0.00 0.00 51 1013.6
20260830185703 97 68 1.7 6.1 0.00 0.00 0.00 52 1013.8
20260830185603 97 94 1.7 6.1 0.00 0.00 0.00 51 1013.7
20260830185502 97 104 1.7 6.1 0.00 0.00 0.00 51 1013.8
20260830185403 97 103 2.6 6.1 0.00 0.00 0.00 51 1013.8
20260830185306 97 172 3.5 6.1 0.00 0.00 0.00 51 1013.8
20260830185201 97 250 2.6 6.1 0.00 0.00 0.00 51 1013.9
20260830185102 97 140 1.7 5.2 0.00 0.00 0.00 51 1013.8
20260830185005 97 172 1.7 5.2 0.00 0.00 0.00 51 1013.9
20260830184902 97 140 1.7 5.2 0.00 0.00 0.00 51 1013.9
20260830184802 97 157 1.7 5.2 0.00 0.00 0.00 52 1013.8
20260830184703 97 11 4.3 5.2 0.00 0.00 0.00 52 1013.8
20260830184604 97 11 4.3 8.7 0.00 0.00 0.00 52 1013.8
20260830184505 97 11 4.3 8.7 0.00 0.00 0.00 52 1013.9
20260830184359 97 358 4.3 8.7 0.00 0.00 0.00 52 1013.9
20260830184258 97 8 2.6 8.7 0.00 0.00 0.00 52 1013.9
20260830184156 96 0 2.6 8.7 0.00 0.00 0.00 52 1013.9
20260830184054 96 0 2.6 8.7 0.00 0.00 0.00 52 1013.9
20260830183952 96 38 1.7 8.7 0.00 0.00 0.00 53 1014.0
20260830183851 96 264 3.5 8.7 0.00 0.00 0.00 53 1014.0
20260830183750 96 245 5.2 8.7 0.00 0.00 0.00 53 1014.0
20260830183648 96 255 5.2 8.7 0.00 0.00 0.00 53 1014.0
20260830183546 96 252 3.5 7.8 0.00 0.00 0.00 52 1014.0
20260830183446 96 235 5.2 7.8 0.00 0.00 0.00 53 1014.0
20260830183344 96 241 5.2 7.8 0.00 0.00 0.00 53 1014.0
20260830183242 96 251 5.2 7.8 0.00 0.00 0.00 53 1014.0
20260830183140 96 259 5.2 7.8 0.00 0.00 0.00 52 1014.0
20260830183040 97 243 3.5 5.2 0.00 0.00 0.00 53 1014.1
20260830182937 96 254 3.5 5.2 0.00 0.00 0.00 53 1014.0
20260830182834 97 130 3.5 5.2 0.00 0.00 0.00 53 1014.1
20260830182735 96 165 3.5 5.2 0.00 0.00 0.00 54 1014.1
20260830182633 96 157 1.7 4.3 0.00 0.00 0.00 54 1014.1
20260830182532 96 313 1.7 5.2 0.00 0.00 0.00 55 1014.1
20260830182432 96 111 0.9 5.2 0.00 0.00 0.00 55 1014.1
20260830182331 96 69 1.7 5.2 0.00 0.00 0.00 55 1014.2
20260830182233 96 69 1.7 7.8 0.00 0.00 0.00 55 1014.2
20260830182131 95 82 0.9 7.8 0.00 0.00 0.00 56 1014.2
20260830182031 95 80 0.9 7.8 0.00 0.00 0.00 57 1014.2
20260830181932 94 82 0.9 7.8 0.00 0.00 0.00 57 1014.3
20260830181831 94 82 1.7 7.8 0.00 0.00 0.00 57 1014.3
20260830181732 94 82 3.5 7.8 0.00 0.00 0.00 57 1014.3
20260830181631 94 85 4.3 7.8 0.00 0.00 0.00 57 1014.4
20260830181532 94 83 4.3 7.8 0.00 0.00 0.00 57 1014.4
20260830181431 95 94 4.3 7.8 0.00 0.00 0.00 57 1014.4
20260830181333 95 103 4.3 7.8 0.00 0.00 0.00 56 1014.4
20260830181231 95 138 3.5 5.2 0.00 0.00 0.00 56 1014.5
20260830181132 95 109 2.6 5.2 0.00 0.00 0.00 56 1014.4
20260830181032 96 110 2.6 4.3 0.00 0.00 0.00 56 1014.5
20260830180932 95 231 2.6 5.2 0.00 0.00 0.00 57 1014.4
20260830180833 95 226 1.7 5.2 0.00 0.00 0.00 57 1014.4
20260830180731 94 293 2.6 6.1 0.00 0.00 0.00 56 1014.5
20260830180629 94 302 3.5 6.1 0.00 0.00 0.00 55 1014.5
20260830180528 94 281 2.6 6.1 0.00 0.00 0.00 56 1014.5
20260830180425 95 299 2.6 7.8 0.00 0.00 0.00 55 1014.5
20260830180324 95 299 2.6 7.8 0.00 0.00 0.00 55 1014.5
20260830180224 95 254 3.5 7.8 0.00 0.00 0.00 56 1014.6
20260830180121 95 254 4.3 7.8 0.00 0.00 0.00 56 1014.6
20260830180019 96 230 4.3 7.8 0.00 0.00 0.00 55 1014.6
20260830175917 96 214 4.3 7.8 0.00 0.00 0.00 55 1014.6
20260830175816 96 241 3.5 7.8 0.00 0.00 0.00 55 1014.7
20260830175716 96 199 2.6 7.8 0.00 0.00 0.00 56 1014.6
20260830175615 96 202 3.5 7.8 0.00 0.00 0.00 57 1014.7
20260830175512 95 157 4.3 7.8 0.00 0.00 0.00 57 1014.7
20260830175411 95 217 1.7 7.8 0.00 0.00 0.00 57 1014.7
20260830175310 94 92 1.7 4.3 0.00 0.00 0.00 57 1014.7
20260830175205 94 90 1.7 4.3 0.00 0.00 0.00 57 1014.7
20260830175103 94 87 2.6 7.8 0.00 0.00 0.00 57 1014.7
20260830175002 94 86 3.5 7.8 0.00 0.00 0.00 57 1014.8
20260830174903 95 80 3.5 7.8 0.00 0.00 0.00 57 1014.8
20260830174803 95 92 3.5 7.8 0.00 0.00 0.00 57 1014.8
20260830174702 95 86 2.6 7.8 0.00 0.00 0.00 57 1014.8
20260830174602 95 0 1.7 7.8 0.00 0.00 0.00 57 1014.8
20260830174503 95 281 1.7 7.8 0.00 0.00 0.00 57 1014.8
20260830174402 95 247 2.6 7.8 0.00 0.00 0.00 58 1014.8
20260830174302 94 251 3.5 7.8 0.00 0.00 0.00 57 1014.8
20260830174203 95 227 2.6 7.8 0.00 0.00 0.00 57 1014.8
20260830174102 95 168 2.6 7.8 0.00 0.00 0.00 57 1014.8
20260830174001 95 196 4.3 7.8 0.00 0.00 0.00 57 1014.8
20260830173903 95 190 4.3 7.8 0.00 0.00 0.00 57 1014.8
20260830173803 95 204 4.3 7.8 0.00 0.00 0.00 58 1014.9
20260830173702 95 210 4.3 7.8 0.00 0.00 0.00 59 1014.9
20260830173602 94 224 2.6 7.8 0.00 0.00 0.00 59 1014.9
20260830173503 94 334 0.9 6.1 0.00 0.00 0.00 59 1014.9
20260830173402 94 336 0.9 6.1 0.00 0.00 0.00 59 1014.9
20260830173302 94 279 1.7 6.1 0.00 0.00 0.00 58 1014.9
20260830173203 94 279 2.6 6.1 0.00 0.00 0.00 58 1015.0
20260830173103 94 231 3.5 6.1 0.00 0.00 0.00 59 1015.0
20260830173002 94 259 3.5 6.1 0.00 0.00 0.00 58 1015.0
20260830172901 94 269 1.7 4.3 0.00 0.00 0.00 59 1015.1
20260830172803 94 293 0.9 3.5 0.00 0.00 0.00 59 1015.0
20260830172702 94 357 1.7 4.3 0.00 0.00 0.00 59 1015.1
20260830172602 94 357 1.7 4.3 0.00 0.00 0.00 58 1015.0
20260830172503 94 355 1.7 4.3 0.00 0.00 0.00 59 1015.1
20260830172402 94 351 1.7 4.3 0.00 0.00 0.00 59 1015.1
20260830172306 94 310 0.9 4.3 0.00 0.00 0.00 59 1015.1
20260830172204 94 310 0.0 4.3 0.00 0.00 0.00 59 1015.1
20260830172104 94 266 0.9 4.3 0.00 0.00 0.00 58 1015.1
20260830172003 94 266 1.7 4.3 0.00 0.00 0.00 58 1015.1
20260830171902 94 257 1.7 4.3 0.00 0.00 0.00 58 1015.3
20260830171801 94 200 1.7 4.3 0.00 0.00 0.00 59 1015.3
20260830171702 94 30 0.9 4.3 0.00 0.00 0.00 59 1015.2
20260830171602 94 0 0.9 4.3 0.00 0.00 0.00 59 1015.2
20260830171502 93 0 0.9 4.3 0.00 0.00 0.00 60 1015.2
20260830171403 93 0 1.7 4.3 0.00 0.00 0.00 59 1015.2
20260830171302 94 0 1.7 4.3 0.00 0.00 0.00 58 1015.2
20260830171202 94 0 1.7 4.3 0.00 0.00 0.00 58 1015.2
20260830171104 94 96 1.7 4.3 0.00 0.00 0.00 58 1015.2
20260830171002 94 144 1.7 4.3 0.00 0.00 0.00 58 1015.2
20260830170901 94 195 0.9 4.3 0.00 0.00 0.00 59 1015.2
20260830170802 94 127 1.7 6.1 0.00 0.00 0.00 59 1015.2
20260830170702 94 127 1.7 8.7 0.00 0.00 0.00 59 1015.2
20260830170603 93 118 1.7 8.7 0.00 0.00 0.00 59 1015.2
20260830170502 94 179 1.7 8.7 0.00 0.00 0.00 60 1015.2
20260830170402 93 130 1.7 8.7 0.00 0.00 0.00 60 1015.2
20260830170302 93 96 2.6 8.7 0.00 0.00 0.00 59 1015.2
20260830170201 93 152 2.6 8.7 0.00 0.00 0.00 60 1015.2
20260830170101 93 180 3.5 8.7 0.00 0.00 0.00 61 1015.2
20260830170001 92 243 4.3 8.7 0.00 0.00 0.00 61 1015.1
20260830165901 92 264 4.3 8.7 0.00 0.00 0.00 60 1015.2
20260830165801 92 213 3.5 8.7 0.00 0.00 0.00 62 1015.1
20260830165701 92 243 0.9 4.3 0.00 0.00 0.00 62 1015.1
20260830165602 92 298 0.9 4.3 0.00 0.00 0.00 63 1015.2
20260830165500 92 305 1.7 4.3 0.00 0.00 0.00 63 1015.2
20260830165402 92 306 2.6 4.3 0.00 0.00 0.00 62 1015.1
20260830165305 92 307 3.5 4.3 0.00 0.00 0.00 62 1015.2
20260830165202 92 307 3.5 5.2 0.00 0.00 0.00 62 1015.2
20260830165103 93 324 0.9 6.1 0.00 0.00 0.00 63 1015.2
20260830165002 93 324 0.9 6.1 0.00 0.00 0.00 63 1015.2
20260830164904 93 324 0.9 6.1 0.00 0.00 0.00 63 1015.2
20260830164801 93 324 0.9 6.1 0.00 0.00 0.00 63 1015.2
20260830164700 92 302 0.9 6.1 0.00 0.00 0.00 64 1015.2
20260830164602 92 302 1.7 6.1 0.00 0.00 0.00 65 1015.3
20260830164501 92 180 1.7 6.1 0.00 0.00 0.00 65 1015.2
20260830164400 92 254 3.5 6.1 0.00 0.00 0.00 66 1015.3
20260830164302 92 254 4.3 6.1 0.00 0.00 0.00 65 1015.3
20260830164200 92 255 3.5 6.1 0.00 0.00 0.00 64 1015.2
20260830164101 92 276 2.6 5.2 0.00 0.00 0.00 65 1015.1
20260830164001 92 266 1.7 5.2 0.00 0.00 0.00 65 1015.2
20260830163901 92 210 1.7 5.2 0.00 0.00 0.00 66 1015.2
20260830163800 92 0 1.7 6.1 0.00 0.00 0.00 67 1015.2
20260830163701 92 274 1.7 6.1 0.00 0.00 0.00 67 1015.2
20260830163602 91 274 2.6 6.1 0.00 0.00 0.00 67 1015.2
20260830163501 91 248 2.6 6.1 0.00 0.00 0.00 67 1015.2
20260830163400 91 320 2.6 6.1 0.00 0.00 0.00 66 1015.2
20260830163300 92 331 0.9 6.1 0.00 0.00 0.00 66 1015.3
20260830163201 92 276 1.7 6.1 0.00 0.00 0.00 66 1015.3
20260830163101 92 276 3.5 6.1 0.00 0.00 0.00 66 1015.3
20260830163000 92 245 4.3 6.1 0.00 0.00 0.00 66 1015.3
20260830162903 92 261 3.5 6.1 0.00 0.00 0.00 66 1015.3
20260830162801 92 261 3.5 6.1 0.00 0.00 0.00 65 1015.3
20260830162700 93 255 3.5 6.1 0.00 0.00 0.00 65 1015.2
20260830162601 93 255 2.6 5.2 0.00 0.00 0.00 65 1015.4
20260830162500 93 212 1.7 5.2 0.00 0.00 0.00 64 1015.3
20260830162400 93 165 2.6 5.2 0.00 0.00 0.00 65 1015.3
20260830162300 93 255 1.7 5.2 0.00 0.00 0.00 65 1015.3
20260830162203 92 262 1.7 4.3 0.00 0.00 0.00 65 1015.4
20260830162100 92 185 2.6 4.3 0.00 0.00 0.00 66 1015.3
20260830162000 92 285 2.6 4.3 0.00 0.00 0.00 67 1015.3
20260830161900 92 161 1.7 4.3 0.00 0.00 0.00 67 1015.3
20260830161759 91 175 1.7 4.3 0.00 0.00 0.00 68 1015.3
20260830161700 91 158 1.7 4.3 0.00 0.00 0.00 68 1015.3
20260830161601 91 288 1.7 4.3 0.00 0.00 0.00 68 1015.2
20260830161502 91 288 1.7 4.3 0.00 0.00 0.00 68 1015.3
20260830161401 90 240 1.7 4.3 0.00 0.00 0.00 68 1015.3
20260830161300 90 240 1.7 4.3 0.00 0.00 0.00 68 1015.3
20260830161201 90 240 1.7 4.3 0.00 0.00 0.00 68 1015.2
20260830161101 90 276 1.7 3.5 0.00 0.00 0.00 68 1015.3
20260830161001 90 258 1.7 3.5 0.00 0.00 0.00 67 1015.3
20260830160900 90 262 1.7 3.5 0.00 0.00 0.00 67 1015.3
20260830160800 90 268 2.6 3.5 0.00 0.00 0.00 68 1015.3
20260830160701 91 238 2.6 4.3 0.00 0.00 0.00 67 1015.4
20260830160600 91 261 0.9 5.2 0.00 0.00 0.00 67 1015.3
20260830160500 90 219 0.9 5.2 0.00 0.00 0.00 68 1015.3
20260830160401 90 210 1.7 5.2 0.00 0.00 0.00 68 1015.3
20260830160259 90 209 1.7 5.2 0.00 0.00 0.00 68 1015.3
20260830160159 90 207 1.7 5.2 0.00 0.00 0.00 69 1015.3
20260830160059 90 250 1.7 5.2 0.00 0.00 0.00 68 1015.3
20260830160000 90 250 2.6 5.2 0.00 0.00 0.00 69 1015.4
20260830155859 90 250 3.5 5.2 0.00 0.00 0.00 69 1015.3
20260830155801 90 240 3.5 5.2 0.00 0.00 0.00 69 1015.3
20260830155659 90 233 2.6 5.2 0.00 0.00 0.00 69 1015.3
20260830155600 90 248 3.5 5.2 0.00 0.00 0.00 69 1015.2
20260830155459 90 233 3.5 5.2 0.00 0.00 0.00 69 1015.3
20260830155359 90 247 2.6 4.3 0.00 0.00 0.00 69 1015.3
20260830155300 89 269 1.7 4.3 0.00 0.00 0.00 70 1015.3
20260830155200 89 233 1.7 4.3 0.00 0.00 0.00 69 1015.3
20260830155100 89 303 0.9 3.5 0.00 0.00 0.00 70 1015.3
20260830154959 89 303 0.9 4.3 0.00 0.00 0.00 70 1015.3
20260830154859 89 303 1.7 4.3 0.00 0.00 0.00 70 1015.3
20260830154800 89 303 1.7 5.2 0.00 0.00 0.00 69 1015.4
20260830154700 89 278 0.9 5.2 0.00 0.00 0.00 69 1015.3
20260830154559 89 233 0.9 5.2 0.00 0.00 0.00 69 1015.4
20260830154459 89 233 0.9 5.2 0.00 0.00 0.00 69 1015.3
20260830154402 89 238 1.7 6.1 0.00 0.00 0.00 69 1015.4
20260830154259 89 254 2.6 7.8 0.00 0.00 0.00 69 1015.4
20260830154202 89 254 2.6 7.8 0.00 0.00 0.00 69 1015.3
20260830154100 89 234 2.6 7.8 0.00 0.00 0.00 69 1015.3
20260830154001 89 248 2.6 7.8 0.00 0.00 0.00 68 1015.4
20260830153900 90 221 2.6 7.8 0.00 0.00 0.00 69 1015.4
20260830153800 90 179 2.6 7.8 0.00 0.00 0.00 69 1015.3
20260830153700 89 185 3.5 7.8 0.00 0.00 0.00 70 1015.4
20260830153559 89 228 4.3 7.8 0.00 0.00 0.00 70 1015.3
20260830153500 89 219 4.3 7.8 0.00 0.00 0.00 70 1015.4
20260830153400 89 197 1.7 7.8 0.00 0.00 0.00 72 1015.4
20260830153301 89 182 0.9 4.3 0.00 0.00 0.00 71 1015.4
20260830153159 89 182 1.7 4.3 0.00 0.00 0.00 72 1015.4
20260830153059 89 131 2.6 4.3 0.00 0.00 0.00 72 1015.3
20260830153001 89 137 1.7 4.3 0.00 0.00 0.00 72 1015.4
20260830152859 89 200 2.6 4.3 0.00 0.00 0.00 72 1015.4
20260830152759 89 157 2.6 4.3 0.00 0.00 0.00 73 1015.4
20260830152659 89 135 1.7 4.3 0.00 0.00 0.00 74 1015.4
20260830152600 89 106 1.7 4.3 0.00 0.00 0.00 73 1015.4
20260830152458 88 329 2.6 4.3 0.00 0.00 0.00 72 1015.5
20260830152358 88 285 2.6 4.3 0.00 0.00 0.00 72 1015.4
20260830152301 88 286 3.5 4.3 0.00 0.00 0.00 73 1015.5
20260830152158 88 265 3.5 4.3 0.00 0.00 0.00 73 1015.4
20260830152059 88 264 3.5 4.3 0.00 0.00 0.00 74 1015.5
20260830152000 88 237 2.6 4.3 0.00 0.00 0.00 75 1015.5
20260830151900 88 83 1.7 4.3 0.00 0.00 0.00 75 1015.4
20260830151759 87 264 0.0 4.3 0.00 0.00 0.00 75 1015.4
20260830151658 87 264 0.0 5.2 0.00 0.00 0.00 76 1015.4
20260830151600 87 264 0.0 5.2 0.00 0.00 0.00 76 1015.4
20260830151459 87 264 0.9 5.2 0.00 0.00 0.00 76 1015.4
20260830151358 87 264 1.7 5.2 0.00 0.00 0.00 76 1015.4
20260830151259 87 264 1.7 5.2 0.00 0.00 0.00 76 1015.4
20260830151159 87 262 2.6 5.2 0.00 0.00 0.00 76 1015.4
20260830151100 87 257 2.6 5.2 0.00 0.00 0.00 76 1015.4
20260830150958 87 261 2.6 5.2 0.00 0.00 0.00 76 1015.4
20260830150900 87 286 3.5 5.2 0.00 0.00 0.00 75 1015.4
20260830150758 87 261 2.6 5.2 0.00 0.00 0.00 75 1015.3
20260830150659 87 290 0.9 5.2 0.00 0.00 0.00 76 1015.4
20260830150559 87 259 0.9 5.2 0.00 0.00 0.00 76 1015.3
20260830150459 87 251 3.5 5.2 0.00 0.00 0.00 75 1015.3
20260830150358 87 261 3.5 5.2 0.00 0.00 0.00 76 1015.3
20260830150258 87 255 1.7 5.2 0.00 0.00 0.00 76 1015.3
20260830150201 87 257 0.9 5.2 0.00 0.00 0.00 76 1015.3
20260830150059 87 224 1.7 5.2 0.00 0.00 0.00 76 1015.2
20260830145958 87 221 2.6 5.2 0.00 0.00 0.00 76 1015.2
20260830145900 87 276 2.6 5.2 0.00 0.00 0.00 76 1015.3
20260830145758 87 224 3.5 5.2 0.00 0.00 0.00 77 1015.2
20260830145658 87 234 2.6 5.2 0.00 0.00 0.00 77 1015.3
20260830145558 87 220 1.7 4.3 0.00 0.00 0.00 78 1015.3
20260830145500 87 317 2.6 4.3 0.00 0.00 0.00 77 1015.3
20260830145358 87 317 2.6 4.3 0.00 0.00 0.00 76 1015.3
20260830145258 87 298 1.7 4.3 0.00 0.00 0.00 76 1015.3
20260830145159 87 298 1.7 4.3 0.00 0.00 0.00 76 1015.3
20260830145059 87 298 2.6 4.3 0.00 0.00 0.00 76 1015.2
20260830144958 87 223 1.7 4.3 0.00 0.00 0.00 78 1015.2
20260830144901 87 93 0.9 4.3 0.00 0.00 0.00 78 1015.2
20260830144800 87 93 0.9 4.3 0.00 0.00 0.00 79 1015.3
20260830144658 87 125 1.7 4.3 0.00 0.00 0.00 80 1015.3
20260830144557 86 148 2.6 4.3 0.00 0.00 0.00 80 1015.3
20260830144455 86 193 2.6 5.2 0.00 0.00 0.00 80 1015.4
20260830144355 85 140 0.9 5.2 0.00 0.00 0.00 80 1015.3
20260830144253 85 274 0.9 5.2 0.00 0.00 0.00 80 1015.3
20260830144150 85 274 0.9 5.2 0.00 0.00 0.00 80 1015.3
20260830144049 85 274 0.9 5.2 0.00 0.00 0.00 80 1015.3
20260830143948 85 274 2.6 5.2 0.00 0.00 0.00 80 1015.4
20260830143846 85 274 2.6 5.2 0.00 0.00 0.00 79 1015.5
20260830143745 85 274 2.6 5.2 0.00 0.00 0.00 79 1015.4
20260830143644 86 257 3.5 5.2 0.00 0.00 0.00 79 1015.4
20260830143544 86 238 4.3 5.2 0.00 0.00 0.00 80 1015.4
20260830143440 86 244 4.3 5.2 0.00 0.00 0.00 80 1015.5
20260830143339 85 233 3.5 5.2 0.00 0.00 0.00 80 1015.4
20260830143238 85 258 2.6 5.2 0.00 0.00 0.00 80 1015.5
20260830143135 85 188 2.6 5.2 0.00 0.00 0.00 81 1015.4
20260830143035 85 173 3.5 5.2 0.00 0.00 0.00 82 1015.4
20260830142933 85 197 2.6 4.3 0.00 0.00 0.00 82 1015.4
20260830142830 85 252 0.9 4.3 0.00 0.00 0.00 83 1015.4
20260830142730 85 250 1.7 4.3 0.00 0.00 0.00 82 1015.4
20260830142632 85 250 1.7 4.3 0.00 0.00 0.00 82 1015.5
20260830142531 85 259 2.6 4.3 0.00 0.00 0.00 82 1015.4
20260830142431 85 259 3.5 4.3 0.00 0.00 0.00 83 1015.4
20260830142332 85 255 2.6 4.3 0.00 0.00 0.00 83 1015.5
20260830142232 85 269 1.7 4.3 0.00 0.00 0.00 82 1015.5
20260830142131 85 269 2.6 4.3 0.00 0.00 0.00 83 1015.5
20260830142031 85 269 1.7 4.3 0.00 0.00 0.00 83 1015.5
20260830141932 85 257 0.9 4.3 0.00 0.00 0.00 84 1015.5
20260830141831 84 261 0.9 5.2 0.00 0.00 0.00 83 1015.6
20260830141732 84 261 1.7 5.2 0.00 0.00 0.00 84 1015.5
20260830141633 84 238 3.5 5.2 0.00 0.00 0.00 83 1015.5
20260830141532 84 248 1.7 5.2 0.00 0.00 0.00 84 1015.6
20260830141431 84 274 1.7 5.2 0.00 0.00 0.00 84 1015.5
20260830141329 84 314 2.6 5.2 0.00 0.00 0.00 84 1015.5
20260830141229 84 314 1.7 5.2 0.00 0.00 0.00 84 1015.5
20260830141126 84 307 2.6 5.2 0.00 0.00 0.00 85 1015.5
20260830141026 84 303 4.3 5.2 0.00 0.00 0.00 84 1015.4
20260830140924 84 281 3.5 5.2 0.00 0.00 0.00 84 1015.4
20260830140822 84 282 3.5 5.2 0.00 0.00 0.00 84 1015.4
20260830140721 84 230 4.3 5.2 0.00 0.00 0.00 84 1015.4
20260830140619 84 247 4.3 5.2 0.00 0.00 0.00 85 1015.4
20260830140519 84 230 3.5 4.3 0.00 0.00 0.00 85 1015.4
20260830140416 83 259 3.5 4.3 0.00 0.00 0.00 86 1015.4
20260830140310 83 244 2.6 4.3 0.00 0.00 0.00 86 1015.3
20260830140209 83 276 1.7 4.3 0.00 0.00 0.00 86 1015.3
20260830140109 83 278 1.7 4.3 0.00 0.00 0.00 86 1015.3
20260830140010 83 310 1.7 4.3 0.00 0.00 0.00 86 1015.3
20260830135906 83 310 2.6 4.3 0.00 0.00 0.00 86 1015.2
20260830135807 83 310 2.6 4.3 0.00 0.00 0.00 86 1015.2
20260830135704 83 310 1.7 3.5 0.00 0.00 0.00 87 1015.2
20260830135604 83 312 1.7 2.6 0.00 0.00 0.00 87 1015.2
20260830135503 83 312 2.6 2.6 0.00 0.00 0.00 87 1015.2
20260830135402 83 312 1.7 3.5 0.00 0.00 0.00 87 1015.2
20260830135306 83 281 0.9 3.5 0.00 0.00 0.00 87 1015.2
20260830135203 83 279 0.0 3.5 0.00 0.00 0.00 87 1015.2
20260830135102 83 279 0.9 3.5 0.00 0.00 0.00 87 1015.2
20260830135003 83 279 0.9 3.5 0.00 0.00 0.00 88 1015.3
20260830134903 83 279 0.9 3.5 0.00 0.00 0.00 88 1015.1
20260830134803 82 279 0.9 3.5 0.00 0.00 0.00 88 1015.1
20260830134702 82 279 1.7 3.5 0.00 0.00 0.00 88 1015.1
20260830134604 82 279 1.7 3.5 0.00 0.00 0.00 88 1015.0
20260830134503 82 279 1.7 3.5 0.00 0.00 0.00 88 1015.1
20260830134402 82 279 1.7 3.5 0.00 0.00 0.00 88 1015.1
20260830134304 82 279 1.7 3.5 0.00 0.00 0.00 88 1015.0
20260830134202 82 279 0.9 3.5 0.00 0.00 0.00 88 1015.0
20260830134102 82 279 0.0 3.5 0.00 0.00 0.00 88 1015.0
20260830134003 82 279 0.9 3.5 0.00 0.00 0.00 88 1015.0
20260830133903 82 279 1.7 3.5 0.00 0.00 0.00 88 1015.0
20260830133803 82 279 1.7 3.5 0.00 0.00 0.00 88 1015.0
20260830133703 82 279 0.9 2.6 0.00 0.00 0.00 89 1015.0
20260830133604 82 279 0.9 2.6 0.00 0.00 0.00 88 1015.0
20260830133503 82 279 1.7 2.6 0.00 0.00 0.00 89 1015.0
20260830133402 82 279 1.7 2.6 0.00 0.00 0.00 89 1015.0
20260830133305 82 279 0.9 2.6 0.00 0.00 0.00 89 1015.0
20260830133204 82 281 0.0 2.6 0.00 0.00 0.00 89 1015.0
20260830133102 82 281 0.0 2.6 0.00 0.00 0.00 89 1015.0
20260830133002 81 281 0.0 2.6 0.00 0.00 0.00 89 1015.0
20260830132903 81 281 0.0 2.6 0.00 0.00 0.00 89 1015.0
20260830132804 81 281 0.9 2.6 0.00 0.00 0.00 89 1014.9
20260830132702 81 281 0.9 2.6 0.00 0.00 0.00 89 1014.9
20260830132604 81 281 0.9 2.6 0.00 0.00 0.00 89 1014.9
20260830132503 81 281 0.9 2.6 0.00 0.00 0.00 90 1014.9
20260830132402 81 281 0.0 2.6 0.00 0.00 0.00 90 1014.9
20260830132305 81 281 0.0 2.6 0.00 0.00 0.00 90 1014.8
20260830132202 81 281 0.0 2.6 0.00 0.00 0.00 90 1014.9
20260830132102 81 281 0.0 2.6 0.00 0.00 0.00 90 1014.8
20260830132004 81 281 0.9 2.6 0.00 0.00 0.00 90 1014.9
20260830131903 81 281 0.9 2.6 0.00 0.00 0.00 91 1014.9
20260830131803 81 281 0.9 2.6 0.00 0.00 0.00 91 1014.8
20260830131703 81 248 0.9 2.6 0.00 0.00 0.00 91 1014.9
20260830131604 81 248 1.7 2.6 0.00 0.00 0.00 91 1014.9
20260830131505 81 248 0.9 1.7 0.00 0.00 0.00 91 1014.8
20260830131403 81 243 0.9 1.7 0.00 0.00 0.00 91 1014.8
20260830131302 80 243 0.0 1.7 0.00 0.00 0.00 91 1014.9
20260830131203 80 243 0.0 1.7 0.00 0.00 0.00 91 1014.9
20260830131103 80 186 0.0 0.9 0.00 0.00 0.00 91 1014.9
20260830131004 80 186 0.0 0.9 0.00 0.00 0.00 91 1014.8
20260830130903 80 186 0.0 0.9 0.00 0.00 0.00 91 1014.8
20260830130804 80 185 0.0 0.0 0.00 0.00 0.00 91 1014.9
20260830130702 80 185 0.0 0.0 0.00 0.00 0.00 91 1014.9
20260830130602 80 185 0.0 0.0 0.00 0.00 0.00 91 1014.9
20260830130505 80 185 0.0 0.0 0.00 0.00 0.00 92 1014.9
20260830130403 80 185 0.0 0.0 0.00 0.00 0.00 92 1014.9
20260830130303 80 185 0.0 0.0 0.00 0.00 0.00 92 1014.9
20260830130203 80 185 0.0 0.0 0.00 0.00 0.00 92 1014.8
20260830130001 80 185 0.0 0.0 0.00 0.00 0.00 92 1014.8
20260830125904 80 185 0.0 0.0 0.00 0.00 0.00 92 1014.9
20260830125802 80 185 0.0 0.0 0.00 0.00 0.00 92 1014.8
20260830125703 80 185 0.0 0.0 0.00 0.00 0.00 92 1014.9
20260830125603 80 185 0.0 0.0 0.00 0.00 0.00 93 1014.9
20260830125503 80 185 0.0 0.0 0.00 0.00 0.00 93 1014.8
20260830125402 80 185 0.0 0.0 0.00 0.00 0.00 93 1014.8
20260830125306 80 185 0.0 0.0 0.00 0.00 0.00 93 1014.8
20260830125204 80 185 0.0 0.0 0.00 0.00 0.00 93 1014.9
20260830125102 80 185 0.0 1.7 0.00 0.00 0.00 93 1014.8
20260830125002 80 185 0.0 1.7 0.00 0.00 0.00 93 1014.8
20260830124902 80 185 0.0 1.7 0.00 0.00 0.00 93 1014.9
20260830124803 79 185 0.0 1.7 0.00 0.00 0.00 93 1014.7
20260830124702 79 185 0.0 1.7 0.00 0.00 0.00 93 1014.8
20260830124603 79 185 0.0 1.7 0.00 0.00 0.00 93 1014.8
20260830124503 79 179 0.0 1.7 0.00 0.00 0.00 93 1014.8
20260830124403 79 180 0.0 1.7 0.00 0.00 0.00 93 1014.8
20260830124303 79 180 0.0 1.7 0.00 0.00 0.00 93 1014.8
20260830124202 79 182 0.9 1.7 0.00 0.00 0.00 93 1014.8
20260830124103 79 182 0.9 1.7 0.00 0.00 0.00 93 1014.8
20260830124004 79 182 0.9 1.7 0.00 0.00 0.00 93 1014.7
20260830123902 79 182 0.9 1.7 0.00 0.00 0.00 93 1014.7
20260830123803 79 183 0.9 1.7 0.00 0.00 0.00 93 1014.8
20260830123702 79 186 0.9 1.7 0.00 0.00 0.00 93 1014.7
20260830123603 79 188 0.9 1.7 0.00 0.00 0.00 94 1014.7
20260830123503 79 189 0.0 0.9 0.00 0.00 0.00 94 1014.7
20260830123403 78 189 0.0 0.0 0.00 0.00 0.00 94 1014.7
20260830123304 78 189 0.0 0.0 0.00 0.00 0.00 94 1014.6
20260830123202 78 189 0.0 0.0 0.00 0.00 0.00 94 1014.6
20260830123103 78 189 0.0 0.0 0.00 0.00 0.00 94 1014.7
20260830123002 78 189 0.0 0.0 0.00 0.00 0.00 94 1014.6
20260830122902 78 189 0.0 0.0 0.00 0.00 0.00 94 1014.7
20260830122803 78 189 0.0 0.0 0.00 0.00 0.00 94 1014.6
20260830122703 78 189 0.0 0.0 0.00 0.00 0.00 94 1014.7
20260830122604 78 189 0.0 0.0 0.00 0.00 0.00 94 1014.6
20260830122502 78 189 0.0 0.0 0.00 0.00 0.00 94 1014.6
20260830122402 78 189 0.0 0.0 0.00 0.00 0.00 94 1014.6
20260830122306 78 189 0.0 0.0 0.00 0.00 0.00 94 1014.5
20260830122202 78 189 0.0 0.0 0.00 0.00 0.00 94 1014.5
20260830122103 78 171 0.0 0.0 0.00 0.00 0.00 94 1014.5
20260830122004 78 183 0.0 0.0 0.00 0.00 0.00 93 1014.5
20260830121902 78 188 0.0 0.0 0.00 0.00 0.00 93 1014.4
20260830121802 78 188 0.0 0.0 0.00 0.00 0.00 93 1014.5
20260830121703 78 189 0.0 0.0 0.00 0.00 0.00 93 1014.6
20260830121602 78 189 0.0 0.0 0.00 0.00 0.00 93 1014.5
20260830121503 78 189 0.0 0.0 0.00 0.00 0.00 93 1014.6
20260830121404 78 189 0.0 0.0 0.00 0.00 0.00 93 1014.6
20260830121302 78 189 0.0 0.0 0.00 0.00 0.00 94 1014.6
20260830121203 78 189 0.0 0.0 0.00 0.00 0.00 94 1014.5
20260830121103 78 189 0.0 0.0 0.00 0.00 0.00 93 1014.5
20260830121002 78 189 0.0 0.0 0.00 0.00 0.00 93 1014.5
20260830120902 78 189 0.0 0.0 0.00 0.00 0.00 93 1014.5
20260830120803 78 189 0.0 0.0 0.00 0.00 0.00 93 1014.5
20260830120703 78 189 0.0 0.0 0.00 0.00 0.00 93 1014.6
20260830120602 78 189 0.0 0.0 0.00 0.00 0.00 94 1014.6
20260830120502 78 189 0.0 0.0 0.00 0.00 0.00 93 1014.5
20260830120402 78 189 0.0 0.0 0.00 0.00 0.00 93 1014.5
20260830120302 78 189 0.0 0.0 0.00 0.00 0.00 93 1014.5
20260830120203 78 189 0.0 0.0 0.00 0.00 0.00 93 1014.5
20260830120003 78 189 0.0 0.0 0.00 0.00 0.00 93 1014.5
20260830115903 78 189 0.0 0.0 0.00 0.00 0.00 93 1014.6
20260830115802 78 189 0.0 0.0 0.00 0.00 0.00 93 1014.5
20260830115703 78 189 0.0 0.0 0.00 0.00 0.00 93 1014.5
20260830115602 78 189 0.0 0.0 0.00 0.00 0.00 93 1014.5
20260830115505 78 189 0.0 0.0 0.00 0.00 0.00 93 1014.4
20260830115404 78 189 0.0 0.0 0.00 0.00 0.00 93 1014.4
20260830115306 78 189 0.0 0.0 0.00 0.00 0.00 94 1014.4
20260830115203 78 189 0.0 0.0 0.00 0.00 0.00 93 1014.5
20260830115102 78 189 0.0 0.0 0.00 0.00 0.00 93 1014.5
20260830115004 78 189 0.0 0.0 0.00 0.00 0.00 93 1014.5
20260830114902 78 189 0.0 0.0 0.00 0.00 0.00 93 1014.5
20260830114804 78 189 0.0 0.0 0.00 0.00 0.00 93 1014.5
20260830114703 78 189 0.0 0.0 0.00 0.00 0.00 93 1014.4
20260830114603 78 189 0.0 0.0 0.00 0.00 0.00 93 1014.5
20260830114502 78 189 0.0 0.0 0.00 0.00 0.00 93 1014.4
20260830114403 78 189 0.0 0.0 0.00 0.00 0.00 93 1014.5
20260830114302 78 189 0.0 0.0 0.00 0.00 0.00 93 1014.5
20260830114203 78 189 0.0 0.0 0.00 0.00 0.00 93 1014.5
20260830114103 78 189 0.0 0.0 0.00 0.00 0.00 93 1014.4
20260830114004 78 189 0.0 0.0 0.00 0.00 0.00 93 1014.4
20260830113902 78 189 0.0 0.0 0.00 0.00 0.00 93 1014.4
20260830113802 78 189 0.0 0.0 0.00 0.00 0.00 93 1014.5
20260830113703 78 189 0.0 0.0 0.00 0.00 0.00 93 1014.5
20260830113602 78 189 0.0 0.0 0.00 0.00 0.00 93 1014.4
20260830113502 78 189 0.0 0.0 0.00 0.00 0.00 93 1014.4
20260830113402 78 189 0.0 0.0 0.00 0.00 0.00 93 1014.5
20260830113303 78 189 0.0 0.0 0.00 0.00 0.00 93 1014.5
20260830113201 78 189 0.0 0.0 0.00 0.00 0.00 93 1014.5
20260830113103 78 189 0.0 0.0 0.00 0.00 0.00 93 1014.5
20260830113004 78 189 0.0 0.0 0.00 0.00 0.00 93 1014.4
20260830112902 78 189 0.0 0.0 0.00 0.00 0.00 93 1014.5
20260830112803 78 189 0.0 0.0 0.00 0.00 0.00 93 1014.5
20260830112702 78 189 0.0 0.0 0.00 0.00 0.00 93 1014.5
20260830112603 78 189 0.0 0.0 0.00 0.00 0.00 93 1014.5
20260830112502 78 189 0.0 0.0 0.00 0.00 0.00 93 1014.5
20260830112402 78 189 0.0 0.0 0.00 0.00 0.00 93 1014.5
20260830112306 78 189 0.0 0.0 0.00 0.00 0.00 93 1014.4
20260830112202 78 189 0.0 0.0 0.00 0.00 0.00 93 1014.4
20260830112102 78 189 0.0 0.0 0.00 0.00 0.00 93 1014.5
20260830112001 78 189 0.0 0.0 0.00 0.00 0.00 93 1014.5
20260830111903 78 189 0.0 0.0 0.00 0.00 0.00 93 1014.4
20260830111802 78 189 0.0 0.0 0.00 0.00 0.00 93 1014.4
20260830111702 78 189 0.0 0.0 0.00 0.00 0.00 93 1014.4
20260830111603 78 189 0.0 0.0 0.00 0.00 0.00 93 1014.3
20260830111503 78 189 0.0 0.0 0.00 0.00 0.00 93 1014.4
20260830111403 78 189 0.0 0.0 0.00 0.00 0.00 93 1014.4
20260830111303 78 189 0.0 0.0 0.00 0.00 0.00 93 1014.3
20260830111202 78 189 0.0 0.0 0.00 0.00 0.00 93 1014.3
20260830111102 78 189 0.0 0.0 0.00 0.00 0.00 93 1014.3
20260830111002 78 189 0.0 0.0 0.00 0.00 0.00 93 1014.3
20260830110903 79 189 0.0 0.0 0.00 0.00 0.00 93 1014.3
20260830110802 79 189 0.0 0.0 0.00 0.00 0.00 93 1014.3
20260830110702 79 189 0.0 0.0 0.00 0.00 0.00 93 1014.3
20260830110603 79 189 0.0 0.0 0.00 0.00 0.00 93 1014.3
20260830110504 79 189 0.0 0.0 0.00 0.00 0.00 93 1014.4
20260830110402 78 189 0.0 0.0 0.00 0.00 0.00 93 1014.3
20260830110302 78 189 0.0 0.0 0.00 0.00 0.00 93 1014.3
20260830110203 78 189 0.0 0.0 0.00 0.00 0.00 93 1014.3
20260830110103 78 189 0.0 0.0 0.00 0.00 0.00 93 1014.3
20260830110002 78 189 0.0 0.0 0.00 0.00 0.00 93 1014.3
20260830105904 78 189 0.0 0.0 0.00 0.00 0.00 93 1014.3
20260830105803 78 189 0.0 0.0 0.00 0.00 0.00 93 1014.2
20260830105703 78 189 0.0 0.0 0.00 0.00 0.00 93 1014.2
20260830105602 78 189 0.0 0.0 0.00 0.00 0.00 93 1014.2
20260830105459 78 189 0.0 0.0 0.00 0.00 0.00 92 1014.2
20260830105357 79 190 0.0 0.0 0.00 0.00 0.00 93 1014.2
20260830105255 79 189 0.0 0.0 0.00 0.00 0.00 93 1014.2
20260830105154 79 190 0.0 0.0 0.00 0.00 0.00 93 1014.2
20260830105054 79 190 0.0 0.0 0.00 0.00 0.00 93 1014.2
20260830104953 79 190 0.0 0.0 0.00 0.00 0.00 93 1014.2
20260830104853 79 190 0.0 0.0 0.00 0.00 0.00 93 1014.2
20260830104752 79 190 0.0 0.0 0.00 0.00 0.00 93 1014.1
20260830104652 79 190 0.0 0.0 0.00 0.00 0.00 93 1014.2
20260830104552 79 190 0.0 0.0 0.00 0.00 0.00 93 1014.1
20260830104452 79 190 0.0 0.0 0.00 0.00 0.00 93 1014.1
20260830104352 79 190 0.0 0.0 0.00 0.00 0.00 93 1014.1
20260830104253 79 190 0.0 0.0 0.00 0.00 0.00 93 1014.1
20260830104154 79 190 0.0 0.0 0.00 0.00 0.00 93 1014.2
20260830104053 79 190 0.0 0.0 0.00 0.00 0.00 93 1014.1
20260830103953 79 190 0.0 0.0 0.00 0.00 0.00 92 1014.1
20260830103852 79 190 0.0 0.0 0.00 0.00 0.00 92 1014.1
20260830103753 79 190 0.0 0.0 0.00 0.00 0.00 93 1014.1
20260830103652 79 190 0.0 0.0 0.00 0.00 0.00 93 1014.1
20260830103552 79 190 0.0 0.0 0.00 0.00 0.00 92 1014.1
20260830103454 79 190 0.0 0.0 0.00 0.00 0.00 92 1014.0
20260830103354 79 190 0.0 0.0 0.00 0.00 0.00 92 1014.1
20260830103254 79 190 0.0 0.0 0.00 0.00 0.00 92 1014.0
20260830103153 79 190 0.0 0.0 0.00 0.00 0.00 92 1014.0
20260830103052 79 190 0.0 0.0 0.00 0.00 0.00 92 1014.1
20260830102952 79 190 0.0 0.0 0.00 0.00 0.00 92 1014.0
20260830102853 79 190 0.0 0.0 0.00 0.00 0.00 92 1014.0
20260830102753 79 190 0.0 0.0 0.00 0.00 0.00 92 1014.1
20260830102653 79 190 0.0 0.0 0.00 0.00 0.00 92 1014.1
20260830102552 79 190 0.0 0.0 0.00 0.00 0.00 92 1014.1
20260830102454 79 190 0.0 0.0 0.00 0.00 0.00 92 1014.1
20260830102353 79 190 0.0 0.0 0.00 0.00 0.00 92 1014.1
20260830102252 79 190 0.0 0.0 0.00 0.00 0.00 92 1014.0
20260830102153 79 190 0.0 0.0 0.00 0.00 0.00 92 1014.0
20260830102052 79 190 0.0 0.0 0.00 0.00 0.00 92 1014.1
20260830101952 79 190 0.0 0.0 0.00 0.00 0.00 92 1014.0
20260830101852 79 190 0.0 0.0 0.00 0.00 0.00 92 1014.0
20260830101753 79 190 0.0 0.0 0.00 0.00 0.00 92 1014.0
20260830101652 79 190 0.0 0.0 0.00 0.00 0.00 92 1014.1
20260830101553 79 190 0.0 0.0 0.00 0.00 0.00 92 1014.1
20260830101454 79 190 0.0 0.9 0.00 0.00 0.00 92 1014.0
20260830101354 79 190 0.0 1.7 0.00 0.00 0.00 92 1014.0
20260830101252 79 190 0.0 1.7 0.00 0.00 0.00 92 1014.0
20260830101153 79 190 0.0 1.7 0.00 0.00 0.00 92 1013.9
20260830101053 79 190 0.0 1.7 0.00 0.00 0.00 92 1014.0
20260830100951 79 190 0.0 1.7 0.00 0.00 0.00 92 1013.9
20260830100851 79 190 0.0 1.7 0.00 0.00 0.00 92 1013.9
20260830100751 79 190 0.0 1.7 0.00 0.00 0.00 92 1013.8
20260830100653 79 190 0.0 1.7 0.00 0.00 0.00 92 1013.9
20260830100551 79 192 0.9 1.7 0.00 0.00 0.00 92 1013.9
20260830100451 79 192 0.9 1.7 0.00 0.00 0.00 92 1013.8
20260830100353 79 193 0.0 1.7 0.00 0.00 0.00 92 1013.8
20260830100252 79 193 0.0 1.7 0.00 0.00 0.00 92 1013.9
20260830100152 79 195 0.0 1.7 0.00 0.00 0.00 92 1013.9
20260830100052 79 195 0.0 1.7 0.00 0.00 0.00 92 1013.8
20260830095952 79 195 0.0 1.7 0.00 0.00 0.00 92 1013.9
20260830095851 79 195 0.9 1.7 0.00 0.00 0.00 92 1013.8
20260830095752 79 195 0.0 1.7 0.00 0.00 0.00 92 1013.8
20260830095653 79 195 0.0 0.9 0.00 0.00 0.00 92 1013.8
20260830095551 79 195 0.0 0.0 0.00 0.00 0.00 92 1013.8
20260830095451 79 195 0.0 0.0 0.00 0.00 0.00 92 1013.8
20260830095352 79 195 0.0 0.0 0.00 0.00 0.00 92 1013.8
20260830095252 79 195 0.0 0.0 0.00 0.00 0.00 92 1013.8
20260830095151 79 195 0.0 0.0 0.00 0.00 0.00 92 1013.8
20260830095052 79 195 0.0 0.0 0.00 0.00 0.00 92 1013.8
20260830094953 79 195 0.0 0.0 0.00 0.00 0.00 92 1013.9
20260830094853 79 195 0.0 0.0 0.00 0.00 0.00 92 1013.8
20260830094752 79 195 0.0 0.0 0.00 0.00 0.00 92 1013.8
20260830094653 79 195 0.0 0.0 0.00 0.00 0.00 92 1013.8
20260830094552 79 195 0.0 0.0 0.00 0.00 0.00 92 1013.8
20260830094452 79 195 0.0 0.0 0.00 0.00 0.00 92 1013.8
20260830094352 79 195 0.0 0.0 0.00 0.00 0.00 91 1013.8
20260830094253 79 195 0.0 0.0 0.00 0.00 0.00 91 1013.8
20260830094151 79 195 0.0 0.0 0.00 0.00 0.00 91 1013.8
20260830094051 79 195 0.0 0.0 0.00 0.00 0.00 91 1013.8
20260830093953 79 195 0.0 0.0 0.00 0.00 0.00 91 1013.8
20260830093852 79 195 0.0 0.0 0.00 0.00 0.00 91 1013.8
20260830093751 79 195 0.0 0.0 0.00 0.00 0.00 91 1013.9
20260830093650 79 195 0.0 0.0 0.00 0.00 0.00 91 1013.9
20260830093554 79 195 0.0 0.0 0.00 0.00 0.00 91 1013.9
20260830093453 79 195 0.0 0.0 0.00 0.00 0.00 91 1013.9
20260830093351 79 195 0.0 0.0 0.00 0.00 0.00 91 1013.9
20260830093252 79 195 0.0 0.0 0.00 0.00 0.00 91 1013.9
20260830093151 79 195 0.0 0.0 0.00 0.00 0.00 91 1013.8
20260830093050 79 195 0.0 0.0 0.00 0.00 0.00 91 1013.8
20260830092953 79 195 0.0 0.0 0.00 0.00 0.00 91 1013.9
20260830092853 79 195 0.0 0.0 0.00 0.00 0.00 91 1013.8
20260830092751 79 195 0.0 0.0 0.00 0.00 0.00 91 1013.8
20260830092651 79 195 0.0 0.0 0.00 0.00 0.00 91 1013.8
20260830092553 79 195 0.0 0.0 0.00 0.00 0.00 91 1013.8
20260830092451 79 195 0.0 0.0 0.00 0.00 0.00 91 1013.8
20260830092350 79 195 0.0 0.0 0.00 0.00 0.00 91 1013.8
20260830092250 79 195 0.0 0.0 0.00 0.00 0.00 90 1013.8
20260830092152 79 195 0.0 0.0 0.00 0.00 0.00 91 1013.8
20260830092051 79 195 0.0 1.7 0.00 0.00 0.00 90 1013.8
20260830091952 80 195 0.0 1.7 0.00 0.00 0.00 90 1013.8
20260830091852 80 195 0.0 1.7 0.00 0.00 0.00 90 1013.8
20260830091751 80 195 0.0 1.7 0.00 0.00 0.00 90 1013.8
20260830091650 80 195 0.0 1.7 0.00 0.00 0.00 90 1013.8
20260830091550 80 195 0.0 1.7 0.00 0.00 0.00 90 1013.8
20260830091451 80 195 0.0 1.7 0.00 0.00 0.00 90 1013.8
20260830091350 80 195 0.0 1.7 0.00 0.00 0.00 91 1013.7
20260830091252 80 195 0.0 1.7 0.00 0.00 0.00 91 1013.7
20260830091152 79 195 0.9 1.7 0.00 0.00 0.00 91 1013.7
20260830091050 79 195 0.0 1.7 0.00 0.00 0.00 91 1013.7
20260830090950 79 195 0.0 0.9 0.00 0.00 0.00 91 1013.8
20260830090850 79 195 0.0 0.9 0.00 0.00 0.00 91 1013.8
20260830090750 79 195 0.0 0.9 0.00 0.00 0.00 91 1013.8
20260830090651 79 195 0.0 0.9 0.00 0.00 0.00 90 1013.7
20260830090550 79 195 0.0 0.9 0.00 0.00 0.00 91 1013.8
20260830090451 79 195 0.0 0.0 0.00 0.00 0.00 91 1013.8
20260830090351 79 195 0.0 0.0 0.00 0.00 0.00 90 1013.8
20260830090251 79 195 0.0 0.0 0.00 0.00 0.00 91 1013.8
20260830090153 79 195 0.0 0.0 0.00 0.00 0.00 91 1013.8
20260830090051 79 195 0.0 0.0 0.00 0.00 0.00 91 1013.8
20260830085951 79 195 0.0 0.0 0.00 0.00 0.00 90 1013.8
20260830085850 79 195 0.0 0.0 0.00 0.00 0.00 90 1013.9
20260830085752 79 195 0.0 0.0 0.00 0.00 0.00 90 1013.9
20260830085650 79 195 0.0 0.0 0.00 0.00 0.00 90 1013.9
20260830085551 79 195 0.0 0.0 0.00 0.00 0.00 90 1013.9
20260830085450 79 195 0.0 0.0 0.00 0.00 0.00 90 1013.9
20260830085351 79 195 0.0 0.0 0.00 0.00 0.00 90 1013.9
20260830085251 80 195 0.0 0.0 0.00 0.00 0.00 90 1013.9
20260830085150 79 195 0.0 0.0 0.00 0.00 0.00 90 1013.9
20260830085052 80 185 0.0 0.0 0.00 0.00 0.00 90 1014.0
20260830084951 80 186 0.0 0.0 0.00 0.00 0.00 90 1013.9
20260830084850 80 188 0.0 0.0 0.00 0.00 0.00 90 1013.9
20260830084751 80 189 0.0 0.0 0.00 0.00 0.00 90 1013.9
20260830084649 80 189 0.0 0.0 0.00 0.00 0.00 90 1013.9
20260830084548 80 190 0.0 0.0 0.00 0.00 0.00 90 1013.8
20260830084447 80 190 0.0 0.0 0.00 0.00 0.00 89 1013.9
20260830084346 80 190 0.0 0.0 0.00 0.00 0.00 89 1013.9
20260830084243 80 192 0.0 0.0 0.00 0.00 0.00 89 1013.9
20260830084142 80 192 0.0 0.0 0.00 0.00 0.00 89 1013.9
20260830084040 80 192 0.0 0.0 0.00 0.00 0.00 89 1013.8
20260830083939 80 192 0.0 0.0 0.00 0.00 0.00 89 1013.9
20260830083834 80 192 0.0 0.0 0.00 0.00 0.00 89 1013.9
20260830083732 80 192 0.0 0.0 0.00 0.00 0.00 89 1013.9
20260830083630 80 193 0.0 0.0 0.00 0.00 0.00 89 1013.9
20260830083531 80 193 0.0 0.0 0.00 0.00 0.00 89 1013.8
20260830083432 80 193 0.0 0.0 0.00 0.00 0.00 89 1013.9
20260830083332 80 193 0.0 0.0 0.00 0.00 0.00 89 1013.9
20260830083231 80 193 0.0 0.0 0.00 0.00 0.00 89 1014.0
20260830083133 80 193 0.0 0.0 0.00 0.00 0.00 89 1013.9
20260830083032 80 195 0.0 0.0 0.00 0.00 0.00 89 1013.9
20260830082930 80 195 0.0 0.0 0.00 0.00 0.00 88 1013.9
20260830082832 80 195 0.0 0.0 0.00 0.00 0.00 88 1013.9
20260830082732 80 195 0.0 0.0 0.00 0.00 0.00 88 1013.9
20260830082632 80 195 0.0 0.0 0.00 0.00 0.00 88 1013.9
20260830082531 80 171 0.0 0.0 0.00 0.00 0.00 88 1014.0
20260830082432 80 185 0.0 0.0 0.00 0.00 0.00 88 1013.9
20260830082331 80 189 0.0 0.0 0.00 0.00 0.00 88 1014.0
20260830082232 80 190 0.0 1.7 0.00 0.00 0.00 88 1014.0
20260830082129 80 192 0.0 1.7 0.00 0.00 0.00 88 1014.0
20260830082029 80 192 0.0 1.7 0.00 0.00 0.00 88 1014.0
20260830081927 80 193 0.0 1.7 0.00 0.00 0.00 88 1013.9
20260830081810 80 193 0.0 1.7 0.00 0.00 0.00 88 1014.0
20260830081707 80 193 0.0 1.7 0.00 0.00 0.00 88 1013.9
20260830081607 80 193 0.0 2.6 0.00 0.00 0.00 88 1014.0
20260830081504 80 193 0.0 2.6 0.00 0.00 0.00 88 1013.9
20260830081404 80 195 0.0 2.6 0.00 0.00 0.00 88 1014.0
20260830081303 80 195 0.0 2.6 0.00 0.00 0.00 88 1014.0
20260830081202 80 195 0.0 2.6 0.00 0.00 0.00 88 1014.0
20260830081103 81 186 0.9 2.6 0.00 0.00 0.00 88 1014.0
20260830081004 81 186 0.9 2.6 0.00 0.00 0.00 88 1014.0
20260830080904 81 186 0.9 2.6 0.00 0.00 0.00 88 1014.1
20260830080804 81 186 0.9 2.6 0.00 0.00 0.00 88 1014.0
20260830080703 81 186 0.9 2.6 0.00 0.00 0.00 88 1014.0
20260830080603 81 179 0.9 1.7 0.00 0.00 0.00 88 1014.1
20260830080503 81 175 0.0 1.7 0.00 0.00 0.00 88 1014.1
20260830080403 81 175 0.0 1.7 0.00 0.00 0.00 88 1014.1
20260830080302 81 173 0.0 1.7 0.00 0.00 0.00 88 1014.0
20260830080202 81 175 0.0 2.6 0.00 0.00 0.00 88 1014.0
20260830080003 81 175 0.9 2.6 0.00 0.00 0.00 88 1013.9
20260830075903 81 175 0.9 2.6 0.00 0.00 0.00 87 1013.9
20260830075804 81 203 1.7 2.6 0.00 0.00 0.00 87 1014.0
20260830075704 81 203 1.7 2.6 0.00 0.00 0.00 87 1013.9
20260830075603 81 203 1.7 2.6 0.00 0.00 0.00 87 1013.9
20260830075503 81 203 1.7 2.6 0.00 0.00 0.00 87 1014.0
20260830075402 81 203 1.7 2.6 0.00 0.00 0.00 87 1013.9
20260830075306 81 203 1.7 2.6 0.00 0.00 0.00 87 1014.0
20260830075202 81 203 1.7 3.5 0.00 0.00 0.00 87 1013.9
20260830075103 81 203 1.7 3.5 0.00 0.00 0.00 87 1013.9
20260830075003 81 203 1.7 3.5 0.00 0.00 0.00 87 1013.9
20260830074903 81 203 0.9 3.5 0.00 0.00 0.00 87 1014.0
20260830074804 81 196 0.9 3.5 0.00 0.00 0.00 87 1013.8
20260830074702 81 186 0.9 3.5 0.00 0.00 0.00 87 1013.9
20260830074602 81 183 1.7 3.5 0.00 0.00 0.00 87 1013.9
20260830074504 81 185 1.7 3.5 0.00 0.00 0.00 87 1013.9
20260830074402 81 172 1.7 3.5 0.00 0.00 0.00 87 1014.0
20260830074302 81 175 1.7 3.5 0.00 0.00 0.00 87 1013.9
20260830074202 81 183 1.7 3.5 0.00 0.00 0.00 87 1013.9
20260830074103 81 180 1.7 3.5 0.00 0.00 0.00 87 1014.0
20260830074005 81 168 1.7 3.5 0.00 0.00 0.00 87 1013.9
20260830073902 81 168 1.7 3.5 0.00 0.00 0.00 87 1014.0
20260830073803 81 161 0.9 3.5 0.00 0.00 0.00 87 1014.0
20260830073703 81 161 0.9 3.5 0.00 0.00 0.00 87 1014.0
20260830073603 81 161 0.9 3.5 0.00 0.00 0.00 87 1014.0
20260830073502 81 161 0.9 3.5 0.00 0.00 0.00 87 1014.1
20260830073404 81 182 1.7 3.5 0.00 0.00 0.00 87 1014.0
20260830073303 81 178 1.7 3.5 0.00 0.00 0.00 86 1014.1
20260830073202 81 180 1.7 3.5 0.00 0.00 0.00 86 1014.1
20260830073104 81 182 1.7 3.5 0.00 0.00 0.00 86 1014.0
20260830073004 81 197 1.7 3.5 0.00 0.00 0.00 86 1014.1
20260830072901 81 171 0.9 3.5 0.00 0.00 0.00 86 1014.2
20260830072802 81 157 1.7 3.5 0.00 0.00 0.00 86 1014.1
20260830072703 81 154 1.7 3.5 0.00 0.00 0.00 86 1014.2
20260830072602 81 217 1.7 3.5 0.00 0.00 0.00 86 1014.2
20260830072502 81 178 1.7 3.5 0.00 0.00 0.00 86 1014.2
20260830072403 81 210 1.7 3.5 0.00 0.00 0.00 86 1014.2
20260830072306 81 190 0.9 3.5 0.00 0.00 0.00 86 1014.2
20260830072202 81 176 0.9 3.5 0.00 0.00 0.00 86 1014.2
20260830072102 81 176 1.7 3.5 0.00 0.00 0.00 86 1014.2
20260830072004 81 180 2.6 3.5 0.00 0.00 0.00 86 1014.2
20260830071903 81 182 1.7 2.6 0.00 0.00 0.00 86 1014.2
20260830071802 81 179 0.9 2.6 0.00 0.00 0.00 86 1014.2
20260830071703 81 179 0.9 2.6 0.00 0.00 0.00 86 1014.2
20260830071602 81 179 1.7 2.6 0.00 0.00 0.00 86 1014.2
20260830071502 81 178 1.7 2.6 0.00 0.00 0.00 86 1014.2
20260830071402 81 178 0.9 2.6 0.00 0.00 0.00 86 1014.2
20260830071303 81 157 0.0 2.6 0.00 0.00 0.00 86 1014.2
20260830071203 81 158 0.9 2.6 0.00 0.00 0.00 86 1014.2
20260830071103 81 159 0.9 2.6 0.00 0.00 0.00 86 1014.2
20260830071005 81 202 0.9 2.6 0.00 0.00 0.00 85 1014.3
20260830070902 81 203 0.9 2.6 0.00 0.00 0.00 85 1014.3
20260830070802 81 203 1.7 2.6 0.00 0.00 0.00 86 1014.2
20260830070704 81 203 0.9 3.5 0.00 0.00 0.00 85 1014.2
20260830070602 81 202 0.9 3.5 0.00 0.00 0.00 85 1014.2
20260830070505 81 200 0.9 4.3 0.00 0.00 0.00 85 1014.2
20260830070402 81 182 0.9 4.3 0.00 0.00 0.00 85 1014.1
20260830070303 82 182 0.9 4.3 0.00 0.00 0.00 85 1014.1
20260830070203 82 182 0.9 4.3 0.00 0.00 0.00 85 1014.1
20260830070104 82 182 0.9 4.3 0.00 0.00 0.00 85 1014.1
20260830070002 82 180 0.9 4.3 0.00 0.00 0.00 85 1014.0
20260830065902 82 180 0.9 4.3 0.00 0.00 0.00 85 1014.1
20260830065802 82 180 0.9 4.3 0.00 0.00 0.00 85 1014.1
20260830065702 82 176 1.7 4.3 0.00 0.00 0.00 85 1014.1
20260830065603 82 176 1.7 4.3 0.00 0.00 0.00 85 1014.1
20260830065502 82 197 1.7 3.5 0.00 0.00 0.00 85 1014.1
20260830065402 82 197 1.7 3.5 0.00 0.00 0.00 85 1014.0
20260830065306 82 197 1.7 3.5 0.00 0.00 0.00 85 1014.1
20260830065203 82 197 1.7 3.5 0.00 0.00 0.00 85 1014.1
20260830065102 82 204 1.7 3.5 0.00 0.00 0.00 85 1014.0
20260830065002 82 171 1.7 2.6 0.00 0.00 0.00 85 1014.0
20260830064902 82 178 1.7 2.6 0.00 0.00 0.00 85 1014.1
20260830064802 82 182 0.9 2.6 0.00 0.00 0.00 85 1014.0
20260830064702 82 183 0.0 1.7 0.00 0.00 0.00 85 1014.0
20260830064604 82 196 0.9 2.6 0.00 0.00 0.00 85 1014.0
20260830064503 82 196 0.9 2.6 0.00 0.00 0.00 85 1014.0
20260830064401 82 196 0.9 2.6 0.00 0.00 0.00 85 1014.0
20260830064303 82 196 0.9 2.6 0.00 0.00 0.00 85 1014.0
20260830064203 82 200 0.9 2.6 0.00 0.00 0.00 85 1014.1